GFSNE_prec_cloud_003.txt.gz
Cloud_Cover
5 5 5 0 0 0 0 0 3 6 7 4 3 5 5 2 2 5 2 1 17 100 100 100 100 98 100 100 100 100 100 100 100 86 100 97 100 100
4 2 0 0 0 0 0 0 0 5 68 5 5 5 5 5 3 4 2 9 84 100 100 100 100 100 100 100 100 100 100 100 100 100 100 100 100 100
5 0 0 0 0 0 0 0 4 5 47 5 5 5 5 5 5 5 98 100 99 12 49 23 100 100 100 100 100 100 100 100 100 100 100 100 100 100
5 3 0 0 0 0 0 0 5 5 91 95 5 4 4 5 5 5 76 81 5 2 5 100 100 100 100 100 100 100 100 59 99 100 100 100 100 100
3 0 0 0 0 0 3 5 5 93 95 43 11 5 6 5 19 99 10 0 1 4 4 6 100 100 100 100 100 100 100 100 100 100 100 100 100 100
0 0 0 0 0 5 5 40 89 31 5 33 89 67 5 72 74 23 2 5 5 5 74 52 66 71 44 100 100 100 100 100 100 100 100 100 92 100
2 0 0 0 5 23 100 61 59 63 84 100 92 99 89 6 5 5 61 58 76 27 55 5 70 29 15 11 8 18 100 100 100 100 100 100 100 100
0 0 0 0 0 3 5 14 100 100 100 100 100 63 5 5 34 100 100 100 98 100 100 77 53 69 64 5 32 100 100 100 100 100 100 100 100 100
0 0 0 0 2 5 3 21 100 100 100 100 91 6 95 91 100 93 100 100 100 100 98 100 51 5 5 5 14 91 100 100 100 100 100 100 100 100
0 0 2 4 5 86 98 65 5 5 1 3 88 88 100 100 100 100 100 100 100 100 100 100 58 96 58 5 8 38 99 100 100 100 100 100 100 100
0 5 14 60 37 100 100 78 5 4 2 45 96 78 21 44 100 100 100 100 100 100 100 100 98 97 100 24 5 6 100 100 100 100 100 100 100 100
21 17 5 75 100 100 100 96 34 5 98 82 5 6 62 85 100 100 100 100 100 100 100 100 100 98 100 24 5 5 7 8 100 100 100 100 100 100
15 5 18 76 100 100 100 57 52 100 63 5 10 75 86 79 97 98 100 100 100 100 88 100 100 94 100 100 31 31 32 100 97 100 100 100 100 100
68 32 53 98 100 85 52 99 100 98 8 92 100 100 92 98 100 98 98 100 100 100 100 100 100 100 100 98 100 88 100 100 99 100 100 100 100 100
75 98 87 85 7 5 49 100 94 55 100 100 100 100 100 100 84 100 100 100 100 100 100 100 100 99 100 100 100 96 100 88 96 100 100 100 100 100
100 61 5 4 5 16 20 5 59 100 100 100 100 100 100 100 100 100 100 100 100 100 100 99 100 100 98 100 100 100 100 100 100 100 100 100 100 100
100 9 4 5 30 58 57 87 100 100 100 100 100 100 100 100 100 100 100 99 100 100 100 97 94 100 99 100 100 100 100 100 100 100 100 100 100 100
69 12 57 74 100 100 100 100 98 100 98 100 100 100 100 100 100 98 100 100 100 97 98 89 93 100 100 100 100 100 100 100 100 100 100 100 100 100
14 95 100 100 100 100 100 100 100 100 100 100 100 100 100 100 100 100 100 100 100 99 100 100 100 100 100 100 100 100 100 100 100 100 100 100 100 100
99 100 100 100 100 100 100 100 100 100 100 100 100 100 100 100 100 97 100 100 100 90 100 100 100 100 100 100 100 100 100 100 100 100 100 100 100 100
100 100 100 100 100 100 100 100 100 100 100 100 100 100 100 100 93 100 100 95 100 98 100 100 100 100 100 100 100 100 100 100 100 100 100 100 100 100
100 100 100 100 100 100 100 100 100 100 100 100 100 100 100 100 100 100 100 100 93 100 97 100 100 99 100 100 100 99 100 100 100 100 100 100 100 100
100 100 100 100 100 100 100 100 100 100 100 100 100 100 100 100 100 100 100 100 89 93 94 100 100 100 76 98 92 76 100 100 100 100 100 100 100 100

GFSNE_prec_cloud_006.txt.gz
Cloud_Cover
5 5 5 5 5 0 0 0 2 4 0 0 0 3 5 5 3 5 5 1 6 38 94 100 100 100 100 100 100 100 100 100 100 100 100 100 100 100
6 5 5 1 0 0 0 0 0 5 75 1 5 5 5 5 3 5 5 5 5 21 100 100 98 65 97 100 100 100 100 100 100 100 100 100 100 100
5 2 5 0 0 0 0 0 4 5 31 5 5 5 5 0 5 5 15 95 63 70 49 28 86 100 100 100 100 100 100 100 100 100 100 100 100 100
0 5 4 0 0 0 0 5 5 5 32 5 5 5 5 5 5 5 5 16 52 2 5 100 100 100 100 100 100 100 100 100 100 100 100 100 100 100
5 0 0 0 0 0 1 5 5 75 88 43 10 5 5 14 57 8 6 5 5 7 91 90 100 100 100 100 100 100 100 100 100 100 100 100 100 100
5 5 0 0 0 5 5 24 35 5 5 5 19 70 97 53 75 5 5 5 66 100 32 93 99 100 100 100 100 100 100 100 100 100 100 100 100 100
4 1 4 3 5 5 66 6 22 16 87 100 98 92 53 5 5 5 95 100 100 99 47 14 56 55 28 22 13 33 99 100 100 100 100 100 100 100
5 5 5 5 0 5 5 30 100 100 74 72 95 78 11 5 6 100 100 100 90 98 100 100 89 92 34 5 30 100 100 100 100 100 100 100 100 100
5 5 5 5 2 5 5 48 100 32 22 36 5 7 85 78 100 99 100 100 100 100 100 100 75 100 99 100 100 97 100 100 100 100 100 100 100 100
17 8 5 4 5 94 87 91 5 5 0 5 48 78 100 100 100 100 99 100 100 92 100 100 65 87 82 99 100 99 100 100 100 100 100 100 100 100
73 11 5 53 74 100 100 92 48 4 2 41 96 56 24 62 100 100 92 100 100 100 80 100 98 97 99 67 29 28 100 100 98 100 100 100 100 100
64 34 5 96 100 100 100 98 29 4 82 83 5 5 5 5 70 89 100 100 100 100 61 100 93 99 100 100 78 99 100 18 98 100 100 100 100 100
48 14 5 42 100 100 100 44 41 100 81 8 50 28 67 5 11 68 100 100 100 100 84 100 100 99 100 84 100 99 99 49 50 57 100 100 100 100
64 19 86 100 100 64 40 95 100 98 7 83 99 100 76 78 74 79 78 80 100 100 85 100 100 100 100 100 100 100 100 100 86 94 100 100 100 100
86 99 77 83 5 5 60 100 93 18 99 100 100 100 100 85 66 93 54 45 100 100 81 86 100 100 100 100 99 98 100 100 100 100 100 100 100 100
96 38 5 4 5 8 10 6 18 98 100 100 100 100 100 92 92 91 100 99 100 100 100 97 100 100 100 100 100 100 100 100 100 100 100 100 100 100
100 5 3 5 5 21 14 58 98 100 100 100 100 100 100 100 96 98 99 99 100 100 100 95 93 100 100 99 100 100 100 100 100 100 100 100 100 100
53 5 47 76 100 100 100 100 98 100 100 100 100 100 100 100 100 91 99 100 100 100 100 94 97 100 100 100 100 100 100 100 100 100 100 100 100 100
12 77 100 100 100 100 100 100 100 100 100 100 100 100 100 96 100 100 99 100 100 100 100 98 100 100 100 88 67 100 100 100 100 100 100 100 100 100
85 100 100 100 100 100 100 100 100 100 100 100 100 100 100 100 100 100 100 100 99 100 100 100 98 99 100 100 100 100 100 100 100 100 100 100 100 100
100 100 100 100 100 100 100 100 100 100 100 100 100 100 100 100 94 100 100 98 99 93 100 100 94 93 100 99 97 100 100 100 100 100 100 100 99 100
100 100 100 100 100 100 100 100 100 100 100 100 100 100 100 100 100 100 98 100 91 100 100 100 95 59 75 81 100 100 100 100 100 100 100 100 100 100
100 100 100 100 100 100 100 100 100 100 100 100 100 100 100 98 98 100 100 100 100 82 100 100 100 91 71 85 98 100 100 100 100 98 97 100 100 100

GFSNE_prec_cloud_009.txt.gz
Cloud_Cover
0 5 5 5 0 0 0 0 0 0 0 0 0 1 5 28 5 5 5 5 7 64 85 63 84 99 100 100 100 100 100 100 100 100 100 100 100 100
1 4 3 2 0 0 0 0 0 5 5 0 1 5 15 5 5 5 5 5 5 5 49 100 100 99 100 100 100 100 100 100 100 100 100 100 100 100
5 5 3 0 4 0 0 0 4 5 5 5 5 5 5 5 5 89 100 92 87 100 100 100 100 100 100 100 100 100 100 100 100 100 100 100 100 100
5 0 1 5 5 0 0 0 5 5 5 5 5 5 5 55 99 96 100 99 78 28 99 100 100 100 100 100 100 100 100 100 100 100 100 100 100 100
0 5 2 1 0 0 3 5 5 38 94 97 8 5 84 92 74 27 13 5 16 100 90 100 100 100 100 100 100 100 100 100 100 100 100 100 100 100
5 2 0 0 0 5 19 77 99 85 57 36 100 77 28 5 5 5 5 11 99 93 59 100 100 100 100 100 100 100 100 100 100 100 100 100 100 100
0 0 0 0 5 15 97 98 98 89 98 100 100 64 10 5 10 48 99 94 79 96 46 86 16 58 5 73 96 100 100 100 100 100 100 100 100 100
0 0 0 0 5 31 42 84 98 100 100 100 99 62 5 98 37 100 100 100 97 48 100 100 46 41 5 8 88 100 100 100 100 100 100 100 100 100
0 2 5 5 4 5 9 88 100 79 21 5 7 37 99 91 100 99 100 99 100 51 99 100 16 78 5 52 75 100 100 100 100 100 100 100 100 100
5 5 5 5 19 100 100 100 54 7 11 5 96 73 100 100 100 100 97 100 92 15 93 98 14 78 76 98 100 100 100 100 100 100 100 100 100 100
2 5 5 98 100 100 100 35 96 38 3 14 97 84 33 45 100 100 92 100 100 59 40 100 92 99 98 99 82 100 100 100 100 100 100 100 100 100
99 100 46 100 100 100 100 99 95 5 96 95 5 5 5 5 66 95 100 100 100 100 35 100 96 100 92 70 100 100 100 100 100 100 100 100 100 100
100 100 69 78 100 100 100 64 45 100 94 6 10 52 65 60 5 79 100 100 100 100 83 100 96 92 100 84 91 98 100 87 98 94 100 100 100 100
98 58 53 100 98 58 21 94 100 97 12 93 99 100 82 81 70 71 91 100 100 100 81 100 98 100 100 100 100 100 100 100 100 100 100 100 100 100
42 99 91 71 5 5 43 80 86 80 100 100 100 100 100 91 89 100 79 90 100 100 88 88 100 98 100 100 100 100 98 100 100 100 100 100 100 97
84 77 5 4 5 5 13 9 70 99 100 100 100 98 96 89 100 100 100 100 100 43 100 96 93 100 99 96 100 91 100 100 100 100 100 100 100 100
100 19 5 5 14 27 31 68 100 97 98 100 100 100 99 100 93 99 100 100 100 100 99 100 96 89 95 77 81 100 100 100 100 100 100 100 96 100
69 5 34 77 97 100 100 98 100 100 100 100 100 100 100 100 100 93 100 100 100 100 100 98 93 100 97 100 89 100 100 100 100 100 100 100 100 100
5 64 100 100 100 100 100 100 100 100 100 100 100 100 100 100 100 100 100 100 100 100 100 99 100 100 98 99 92 100 100 100 100 100 100 100 100 100
74 99 100 100 100 100 100 100 100 100 100 100 100 100 100 100 100 100 99 100 100 100 95 90 100 100 100 100 100 100 100 100 100 100 100 100 100 100
99 100 100 100 100 100 100 100 100 100 100 100 100 100 100 100 94 99 100 99 100 94 97 100 100 83 40 80 95 100 100 100 100 100 100 100 100 100
100 100 98 100 100 100 100 100 100 100 100 100 100 100 100 100 100 100 100 100 98 96 95 100 86 96 39 79 75 100 100 100 100 100 100 100 100 100
100 100 100 100 100 100 100 100 100 100 100 100 100 100 100 100 100 100 100 100 100 94 93 100 74 90 69 73 100 99 100 87 99 100 100 100 100 100

GFSNE_prec_cloud_012.txt.gz
Cloud_Cover
0 0 0 0 0 0 0 0 0 0 0 0 0 0 0 4 5 5 50 80 78 71 100 100 100 100 100 100 100 100 100 100 100 100 100 100 100 100
0 0 0 0 0 0 0 0 0 0 0 0 0 0 5 5 28 88 97 76 88 96 100 100 100 100 100 100 100 100 100 100 100 100 100 100 100 100
0 0 0 0 0 0 0 0 0 0 0 0 0 4 5 61 94 100 98 80 5 75 84 76 100 100 100 100 100 100 100 100 100 100 100 100 100 100
0 0 0 0 0 0 0 0 0 5 5 5 5 5 66 100 100 100 100 57 25 5 36 86 100 100 100 100 100 100 100 100 100 100 100 100 100 100
2 0 0 0 0 0 0 4 5 18 74 59 5 9 96 100 95 30 63 65 97 100 96 100 100 100 100 100 100 100 100 100 100 100 100 100 100 100
3 0 0 0 0 2 5 21 66 90 83 62 63 78 98 46 93 36 92 86 100 100 32 100 96 98 100 94 90 100 100 100 100 100 100 100 100 100
1 0 0 1 5 6 84 91 100 97 61 91 100 94 7 36 62 84 100 96 69 100 10 82 65 5 5 41 95 100 100 100 100 100 100 100 100 100
0 0 2 5 19 85 98 100 100 100 100 100 91 98 95 90 100 100 100 98 88 48 100 100 76 16 5 5 76 100 100 100 100 100 100 100 100 100
3 5 5 11 91 93 97 100 100 98 100 95 100 100 100 99 98 95 90 94 100 27 96 96 27 34 5 5 71 100 100 100 100 100 100 100 100 100
5 5 55 86 90 100 99 87 100 78 100 100 100 100 99 100 100 99 100 100 98 85 100 92 5 51 5 50 74 80 98 100 100 100 100 100 100 100
5 30 84 100 100 100 100 89 94 100 100 100 100 100 100 100 100 100 89 100 99 91 69 100 95 84 79 73 85 92 90 100 100 100 100 100 100 100
13 87 96 98 100 100 100 100 100 100 98 87 100 67 94 100 100 100 100 100 100 100 54 100 94 99 95 89 34 55 100 100 100 100 100 100 100 100
99 99 100 100 100 100 100 96 100 100 100 100 100 100 100 100 90 96 100 100 100 100 20 100 100 88 100 77 77 50 93 92 98 100 100 100 100 100
100 100 89 100 98 60 38 75 100 100 98 99 98 100 99 84 89 83 92 95 100 100 62 98 100 100 100 100 98 54 87 98 77 77 89 100 100 100
100 100 100 76 8 5 44 100 100 100 100 100 100 94 100 76 89 98 94 99 99 94 77 73 100 100 100 100 99 92 96 100 100 96 100 100 100 100
99 91 53 20 5 45 60 94 100 99 100 100 100 100 99 96 86 100 100 100 100 76 95 42 90 99 99 100 100 100 100 99 87 95 100 100 100 100
95 71 5 5 5 81 87 99 98 100 100 100 100 100 100 100 100 100 100 98 100 100 80 58 88 100 98 100 100 84 42 88 100 100 100 100 100 100
78 15 14 79 96 100 100 99 98 100 100 100 100 100 100 100 100 88 100 100 100 100 100 87 90 94 98 100 96 100 100 98 100 100 100 100 95 100
5 10 94 100 100 100 100 100 100 100 100 100 100 100 100 97 100 100 100 100 97 99 100 100 100 100 100 90 63 93 100 100 100 100 100 100 100 100
67 85 100 100 100 100 100 100 100 100 100 100 100 100 100 100 99 100 100 100 100 100 100 99 100 100 100 100 100 100 100 100 100 100 100 100 100 100
87 100 100 100 99 100 100 100 100 100 100 100 100 100 100 100 100 100 100 97 100 100 100 100 100 97 100 100 100 98 100 100 99 100 100 100 100 100
97 100 100 96 99 100 100 100 100 100 100 100 100 100 100 100 100 100 100 100 100 100 100 100 92 98 100 100 100 94 74 98 99 100 100 100 100 100
100 100 100 100 100 100 100 100 100 100 100 100 100 100 100 100 100 100 100 100 100 100 100 100 100 94 100 100 100 100 95 100 100 100 100 100 100 100

GFSNE_prec_cloud_015.txt.gz
Cloud_Cover
3 0 0 0 0 0 0 0 0 0 0 0 0 0 0 0 0 0 0 5 17 8 20 72 100 100 100 100 100 100 100 100 100 100 100 100 100 100
2 5 5 0 0 0 0 0 0 0 0 0 0 0 0 0 0 5 5 5 5 5 61 100 100 100 100 100 100 100 100 100 100 100 100 100 100 100
5 5 3 0 0 0 0 0 0 0 0 0 0 0 3 3 5 26 5 2 4 5 46 94 100 100 100 100 100 100 100 100 100 100 100 100 100 100
5 5 0 0 0 0 0 0 0 0 4 5 5 5 5 1 21 26 5 5 5 5 91 100 100 100 100 100 100 100 100 100 100 100 100 100 100 100
5 2 0 0 0 0 0 0 4 5 5 5 5 5 4 5 95 12 5 11 5 5 18 18 100 75 100 100 100 100 100 100 100 100 100 100 100 100
5 0 0 0 0 0 4 5 6 5 32 8 5 5 33 100 72 15 5 5 5 5 5 5 87 17 99 55 94 100 100 100 100 100 100 100 100 100
3 3 0 0 0 17 62 67 77 68 57 50 68 99 61 13 18 50 24 75 5 87 7 5 61 5 5 6 6 76 100 100 100 100 100 100 100 100
5 5 0 0 5 57 86 98 99 100 100 98 100 78 32 5 70 73 63 100 93 63 100 87 6 5 5 5 42 100 100 100 100 100 100 100 100 100
5 4 5 5 5 68 88 95 14 65 100 88 93 99 64 5 51 25 100 95 95 6 47 42 16 5 5 5 25 92 97 100 100 100 100 100 100 100
3 5 5 5 34 96 15 34 61 52 58 97 100 43 6 71 100 100 97 33 30 5 99 96 16 5 5 5 27 53 100 100 96 98 100 100 100 100
2 5 5 41 44 100 100 94 19 5 6 68 71 95 100 100 99 100 8 91 85 100 88 100 41 23 27 11 77 100 36 14 5 9 71 100 100 100
5 5 49 54 100 100 100 52 6 5 6 35 7 6 35 14 99 99 94 100 100 100 26 99 94 96 90 100 83 95 6 5 5 5 94 78 100 100
5 5 5 95 97 100 100 64 18 100 99 73 5 5 5 29 88 33 97 100 100 99 58 100 100 99 100 100 100 97 58 5 5 79 100 100 100 100
22 18 39 99 98 77 64 74 100 100 54 86 66 33 81 83 78 85 21 87 100 100 94 100 100 100 100 97 100 78 20 11 67 48 99 100 100 100
82 91 84 78 72 9 17 100 98 67 97 100 100 78 63 13 5 78 97 100 99 99 80 100 100 100 100 100 100 90 95 97 100 100 100 99 100 100
37 10 5 45 5 5 10 5 18 89 100 100 74 53 76 83 95 98 100 98 100 47 97 100 100 100 100 100 100 100 100 100 95 96 97 98 100 100
95 8 5 5 5 5 5 10 78 100 99 100 100 100 100 100 100 100 100 100 100 100 92 82 83 93 100 98 100 59 86 100 70 72 96 99 100 100
37 5 5 5 5 37 82 81 96 100 100 100 100 100 100 100 100 90 100 100 100 100 100 90 95 96 53 96 100 98 100 62 99 98 100 100 94 100
5 5 5 14 81 99 97 99 100 100 100 100 100 100 100 100 100 100 100 100 100 100 97 100 100 100 100 95 21 100 100 98 100 100 98 100 100 100
5 5 6 60 73 94 99 100 100 100 100 100 100 100 100 100 100 100 100 100 100 85 97 98 100 100 100 100 99 88 53 100 100 100 93 100 100 100
5 5 19 68 73 100 98 100 100 100 100 100 100 100 100 100 96 98 100 99 100 100 99 96 100 100 100 100 100 88 98 100 100 100 100 100 100 100
5 5 9 5 77 98 100 100 100 100 100 100 100 100 100 100 100 100 100 100 98 97 100 100 95 98 100 100 99 98 99 98 100 100 100 100 100 100
5 5 7 51 88 100 100 100 100 100 100 100 100 100 100 100 100 100 100 99 100 100 100 97 99 99 100 100 100 100 95 100 100 100 100 100 100 100

GFSNE_prec_cloud_018.txt.gz
Cloud_Cover
39 40 49 5 0 1 2 0 0 0 0 0 0 0 0 0 0 0 0 0 5 5 6 6 72 93 93 100 100 100 100 100 100 100 100 100 99 100
5 5 5 4 2 5 0 0 0 0 0 0 0 0 0 0 0 0 0 1 1 5 5 45 75 96 100 100 100 100 100 100 100 100 100 100 100 100
37 5 5 5 5 5 1 0 0 0 0 0 0 3 5 5 5 2 2 5 4 4 5 69 100 100 100 100 100 100 100 100 100 100 100 100 100 100
45 5 5 5 5 5 0 0 0 0 0 5 5 5 5 3 0 5 5 5 0 4 61 78 84 100 100 100 100 100 100 100 100 100 100 100 100 100
6 5 10 51 5 5 0 0 0 0 5 5 5 5 3 3 5 5 4 0 5 0 5 5 8 58 64 100 100 100 100 100 100 100 100 100 100 100
50 56 16 5 5 5 0 2 5 17 44 5 5 46 83 30 65 5 4 5 0 2 0 5 27 5 5 15 34 74 100 100 100 100 100 100 100 100
98 51 5 5 5 2 16 59 87 99 64 90 81 83 99 11 11 50 7 5 2 5 45 4 5 2 0 5 5 5 100 100 100 100 100 100 100 100
87 31 5 5 2 5 29 63 93 100 99 87 100 87 6 54 99 5 5 6 88 20 5 5 5 5 5 5 5 92 100 100 100 100 100 100 100 100
65 5 5 4 1 5 8 87 13 10 67 99 23 56 99 69 28 43 71 100 100 10 77 52 5 5 5 5 5 76 99 97 93 97 100 100 100 100
5 5 2 1 5 44 68 46 72 5 5 37 99 97 98 77 100 100 99 82 5 5 67 97 5 9 5 5 5 5 5 100 93 100 92 99 100 100
8 5 4 5 48 80 82 12 5 5 5 5 51 97 100 100 100 100 48 69 94 77 72 100 10 39 29 5 4 66 56 99 50 13 98 93 100 100
94 8 5 5 61 100 100 97 60 5 7 29 5 2 2 5 6 26 83 100 100 96 24 100 86 100 82 5 5 46 79 95 5 5 34 86 71 89
31 6 5 11 99 100 100 82 31 97 85 9 5 5 5 5 5 5 15 98 100 98 73 100 100 100 100 77 22 5 5 13 16 47 5 5 21 61
5 5 5 67 86 83 70 35 99 100 16 5 5 5 26 5 5 5 5 76 86 97 59 98 100 99 100 99 98 9 5 5 60 56 6 13 100 100
5 48 87 48 35 31 5 76 93 5 5 45 99 66 5 5 5 57 5 57 61 92 88 98 100 99 100 100 100 74 93 36 54 38 70 77 90 81
5 5 9 5 4 4 4 4 5 5 88 82 63 83 89 100 95 94 100 91 100 29 96 87 74 100 100 97 100 96 93 100 76 86 83 100 100 100
97 5 2 2 0 4 5 5 5 9 88 86 100 100 95 100 99 96 100 100 100 100 81 18 40 14 95 98 100 88 100 89 97 98 100 100 98 100
54 5 5 5 5 5 5 5 5 29 94 99 100 100 100 100 100 92 99 100 100 99 100 66 77 92 29 71 100 93 75 70 77 86 100 100 98 75
4 0 5 5 5 5 5 5 73 86 100 100 100 100 100 100 100 100 100 100 99 100 73 74 100 100 100 100 100 100 100 97 87 88 49 100 100 100
5 5 5 5 5 5 5 77 100 100 100 100 100 100 100 100 100 100 100 100 100 90 95 100 98 100 100 100 100 42 100 100 100 100 96 66 92 100
5 5 5 5 5 5 24 98 100 100 100 100 99 100 100 100 95 100 100 100 100 100 100 99 98 100 94 99 100 96 100 100 100 100 100 100 100 100
5 5 5 8 51 54 93 100 100 100 100 100 100 100 100 100 100 100 100 100 99 100 100 100 100 100 100 100 100 86 100 99 100 100 100 100 100 100
5 5 5 32 41 87 100 100 100 100 100 100 100 100 100 100 100 100 100 100 100 100 100 100 100 100 100 100 100 96 100 100 100 100 100 100 100 100

GFSNE_prec_cloud_021.txt.gz
Cloud_Cover
5 5 5 5 20 5 5 6 5 5 34 90 5 5 2 0 0 0 0 0 5 5 5 55 95 75 74 100 100 100 100 100 100 100 98 100 100 100
5 36 6 5 5 14 10 5 5 4 1 2 2 3 3 3 0 1 0 0 0 5 72 67 27 87 100 100 100 100 100 100 100 100 100 100 100 100
5 98 57 5 5 5 5 5 5 1 0 0 0 0 0 0 0 0 0 0 2 2 5 9 96 98 100 96 100 100 100 100 100 100 100 100 100 100
86 98 71 5 5 5 5 5 5 5 0 0 0 4 1 0 0 4 5 5 2 0 5 6 5 94 80 100 100 100 100 100 100 100 100 100 100 100
85 68 62 15 68 5 5 5 5 5 5 5 5 5 5 5 15 8 5 5 5 2 2 4 5 5 91 67 95 100 100 100 100 100 100 100 100 100
100 67 69 73 40 5 5 5 43 45 15 66 72 5 5 5 48 5 5 5 5 0 1 5 37 5 5 5 6 5 29 100 99 100 100 100 100 100
100 100 100 77 23 33 29 78 87 15 59 91 16 26 98 52 5 5 5 5 5 5 5 32 5 5 5 4 5 5 90 99 100 100 100 100 100 100
100 99 72 100 100 100 100 48 66 63 100 100 98 96 16 5 5 5 5 12 97 8 76 69 5 5 5 5 8 96 98 99 100 100 100 100 100 100
49 100 100 100 100 90 5 7 42 79 100 100 27 5 53 5 7 15 86 100 95 22 44 97 5 5 5 5 5 5 87 94 98 100 100 100 100 100
100 100 100 100 27 8 55 91 100 82 5 5 6 35 44 82 100 100 97 91 10 5 5 99 28 13 5 5 5 5 5 23 94 100 100 95 79 71
100 100 81 29 52 89 99 94 5 5 5 3 6 79 100 75 82 100 13 95 80 32 5 68 7 5 72 5 2 1 5 50 11 66 100 100 100 100
94 16 5 40 92 99 100 99 55 5 5 27 7 4 3 5 5 8 52 100 100 99 9 91 80 94 100 5 5 5 5 5 5 5 79 100 97 100
30 89 84 56 98 100 100 98 80 90 85 6 4 0 3 5 5 5 5 99 100 100 21 100 100 98 100 84 69 7 5 5 5 5 5 31 87 100
9 11 13 70 99 82 60 49 97 96 6 5 5 5 5 5 5 5 6 24 44 80 59 100 100 100 100 98 99 8 5 5 13 5 10 5 24 44
5 53 100 98 11 4 4 45 20 4 5 5 53 20 61 15 5 88 6 5 35 100 83 88 97 99 100 100 100 90 95 33 64 44 5 99 100 100
13 99 63 3 4 3 0 0 5 5 41 67 87 98 100 98 69 69 100 100 100 32 100 73 79 97 100 100 100 92 97 99 45 80 72 97 52 86
100 11 3 0 0 2 5 5 5 5 35 73 100 100 98 100 100 85 100 100 100 100 73 67 92 98 90 100 99 84 90 94 75 92 95 100 100 99
5 1 0 5 5 5 5 5 5 14 60 100 100 100 100 100 100 98 99 100 100 100 100 74 84 95 100 100 100 97 72 88 89 62 97 100 100 69
0 3 5 5 5 5 5 5 46 62 93 100 100 100 100 100 100 100 100 100 99 100 98 96 100 100 100 100 100 100 100 95 100 100 100 100 100 67
0 5 5 5 5 5 5 29 87 100 100 100 100 100 100 100 100 100 100 100 100 92 94 100 99 100 100 100 100 96 100 100 100 100 99 97 96 100
5 5 5 5 5 5 21 76 100 100 100 100 95 100 100 100 93 99 100 99 100 100 96 100 100 91 98 100 100 99 100 100 100 100 100 100 100 100
5 5 5 5 5 39 79 100 100 100 100 99 99 100 100 100 100 100 100 100 95 99 99 100 98 100 100 100 100 95 100 100 100 100 100 100 100 100
5 5 9 61 68 97 100 100 100 100 100 100 100 100 100 99 100 100 100 100 100 100 100 94 100 98 86 96 95 98 100 100 100 100 77 100 100 100

GFSNE_prec_cloud_024.txt.gz
Cloud_Cover
5 5 5 5 5 5 5 5 5 0 4 5 5 5 5 3 5 5 4 0 5 5 5 6 70 96 81 94 100 100 100 100 100 100 100 100 100 100
5 5 6 25 37 5 5 5 5 1 0 0 0 5 5 5 5 5 5 4 1 5 5 9 25 77 98 97 100 100 100 100 100 100 100 100 100 99
34 6 62 85 76 74 5 5 5 4 0 0 0 0 3 5 5 5 5 5 1 4 26 56 90 100 100 100 100 100 100 100 100 100 100 100 100 100
45 82 99 93 100 90 98 99 84 60 5 0 5 5 5 5 5 5 4 1 5 5 5 77 77 62 98 100 97 100 100 100 100 100 100 100 100 100
41 14 99 99 93 100 100 90 63 34 5 5 5 5 5 6 16 6 5 5 5 4 4 5 5 5 84 100 100 90 72 80 95 99 100 100 100 100
77 100 99 95 100 97 84 100 87 21 13 10 6 25 100 71 5 13 5 5 5 2 3 5 5 14 14 5 5 5 5 12 84 99 100 100 100 100
100 69 95 87 13 92 16 79 85 82 95 84 100 38 73 6 10 5 5 5 5 5 5 5 5 5 5 5 5 5 5 82 100 100 100 100 100 100
100 74 100 100 100 81 42 74 84 57 100 94 84 83 16 5 5 8 5 79 93 9 5 35 5 5 5 5 5 14 84 100 100 100 100 100 100 100
78 100 95 35 27 70 26 56 100 99 77 100 90 5 5 5 11 23 72 99 95 18 5 63 5 5 5 5 5 5 5 95 99 97 100 100 100 100
100 98 95 48 5 18 95 29 12 18 41 5 5 44 86 93 100 100 75 56 5 5 5 98 5 5 5 4 5 5 5 5 19 98 100 100 100 100
100 90 32 5 5 28 5 60 26 5 5 5 15 59 63 61 23 92 10 68 85 81 11 85 11 5 5 5 5 5 5 5 34 13 97 100 100 100
98 62 5 5 6 73 100 97 57 5 16 41 5 3 0 0 5 5 5 100 100 100 5 66 73 72 95 5 46 100 16 4 5 55 99 100 99 100
37 0 0 7 96 100 100 85 12 90 72 5 0 0 0 5 5 5 5 97 100 100 74 100 100 94 100 91 66 5 5 5 5 5 5 58 93 99
4 5 7 81 100 74 28 12 70 73 3 0 4 5 5 5 5 5 5 36 44 92 50 100 99 96 100 98 99 8 5 5 5 5 5 6 64 46
5 54 96 86 41 2 1 5 6 0 4 5 44 5 29 10 5 78 26 5 72 100 100 100 100 99 100 100 100 92 97 18 5 43 5 5 5 7
13 77 69 5 0 0 0 0 0 5 20 25 37 75 99 91 80 79 100 98 100 56 98 100 100 99 100 100 100 85 39 99 40 22 18 30 50 86
99 22 0 0 0 1 1 3 5 5 5 20 99 99 98 100 100 92 100 100 100 99 57 78 100 87 98 100 100 91 95 88 43 77 97 92 58 95
9 0 3 5 5 5 5 5 5 13 40 99 100 100 100 100 100 100 100 100 100 99 100 74 87 100 100 100 100 97 69 83 73 88 100 100 100 100
0 3 5 5 5 5 5 10 62 52 71 100 100 100 100 100 100 100 100 100 100 100 76 78 100 100 100 100 100 100 100 100 100 100 100 100 100 99
0 1 5 5 5 5 13 75 96 100 100 100 100 97 100 100 100 96 98 100 100 98 100 92 100 100 100 100 100 100 100 100 100 94 84 78 83 60
1 5 5 5 5 21 78 94 100 100 100 99 100 98 98 100 88 100 100 100 100 99 100 89 94 100 95 99 100 100 100 100 100 100 100 100 94 99
5 5 5 12 71 94 98 100 100 100 100 100 95 100 100 100 100 100 98 100 93 93 99 100 99 100 100 100 99 99 100 87 100 100 100 100 100 100
5 6 74 95 94 97 100 100 100 100 100 99 100 100 100 100 100 100 100 94 100 100 100 100 100 97 100 100 100 100 100 100 100 100 100 100 100 100

GFSNE_prec_cloud_027.txt.gz
Cloud_Cover
100 74 100 100 6 5 17 5 5 5 5 28 7 5 5 5 1 0 0 0 2 5 5 5 5 5 44 75 97 95 98 100 100 100 100 100 100 100
100 100 100 99 45 70 6 11 15 28 5 39 93 98 40 10 5 5 5 5 3 5 5 5 7 76 86 100 100 100 100 100 100 100 100 100 100 100
100 100 98 100 100 50 86 16 60 5 5 12 44 5 4 2 5 3 2 0 3 2 5 5 93 100 100 100 100 100 100 100 100 100 100 100 100 100
100 100 100 100 100 100 97 77 16 5 5 5 5 5 5 5 5 5 1 0 3 5 5 76 84 22 90 100 100 100 100 100 100 100 100 100 100 100
100 100 100 100 100 96 76 24 9 5 5 5 5 5 5 5 5 5 5 5 5 2 4 5 5 54 99 100 100 99 100 92 96 40 64 93 100 100
100 100 100 100 96 99 69 58 43 6 10 5 5 5 5 5 5 5 5 5 5 3 5 5 6 10 11 5 9 5 5 5 5 50 100 92 100 100
100 100 100 100 98 87 70 97 35 94 46 8 53 31 8 5 5 5 5 5 5 5 5 5 5 5 5 5 3 5 5 6 88 98 100 100 100 100
100 100 99 100 99 100 88 100 86 66 61 97 79 82 35 5 5 5 5 100 93 21 5 5 5 5 4 4 4 5 5 28 100 100 100 100 100 100
100 100 100 100 100 100 100 85 16 48 35 91 51 5 5 5 7 31 87 100 100 27 5 45 5 5 1 0 1 5 5 64 95 97 100 100 100 100
100 100 100 100 100 100 100 77 73 5 5 5 5 5 5 62 100 100 100 78 16 5 5 46 5 5 2 0 3 5 5 5 5 67 100 100 100 100
100 100 100 100 100 100 100 99 55 5 5 3 5 9 64 66 30 28 7 71 94 35 5 54 5 5 5 5 0 1 5 6 23 17 51 99 100 100
100 94 100 100 100 100 100 75 5 5 5 5 5 5 0 0 5 5 22 98 100 89 5 83 28 99 65 5 5 5 5 20 5 5 74 98 100 100
30 96 100 100 100 99 90 7 5 34 75 6 3 0 0 4 5 5 5 84 100 100 6 100 84 99 100 81 24 5 5 5 5 5 5 30 97 100
100 100 100 100 87 82 44 5 11 71 9 0 4 5 5 5 5 5 5 16 53 98 10 96 99 97 100 98 99 5 69 5 5 5 5 5 66 45
100 100 94 54 10 4 0 5 9 2 5 5 5 5 5 5 5 5 5 51 78 86 61 100 98 99 100 100 99 85 94 23 45 40 6 5 5 5
99 82 78 5 0 0 0 0 0 4 12 7 8 48 79 68 39 54 96 97 100 44 16 96 73 84 100 100 100 88 82 100 99 94 100 99 66 92
97 5 4 0 3 2 1 3 5 5 5 5 94 99 97 97 88 41 99 100 100 99 84 54 77 99 97 100 100 98 100 99 5 19 76 96 70 69
5 1 3 5 5 5 5 5 5 14 22 87 100 100 100 100 100 98 100 100 100 100 100 36 87 100 100 100 100 100 100 98 74 77 100 100 100 100
0 3 5 5 5 5 5 41 81 56 64 100 100 100 100 99 100 100 100 100 100 100 83 88 100 100 100 100 100 100 100 100 100 92 63 100 100 97
0 1 5 5 5 32 68 93 100 100 100 100 100 94 96 100 96 100 100 100 100 93 99 96 99 100 100 100 100 100 100 100 100 100 99 81 30 10
1 5 5 9 56 90 98 98 99 100 100 98 99 98 100 100 94 100 100 100 100 100 100 87 76 100 100 100 100 85 100 100 100 100 100 100 100 100
5 5 5 62 91 96 94 93 96 100 100 100 95 100 100 100 100 100 100 100 97 100 96 100 100 100 100 100 99 94 88 100 100 100 100 100 100 100
5 5 54 94 90 89 88 86 99 100 100 94 100 100 100 100 100 100 100 100 100 100 100 100 100 100 100 100 100 100 100 100 100 100 100 100 100 100

GFSNE_prec_cloud_030.txt.gz
Cloud_Cover
100 100 100 100 100 100 100 100 88 58 76 97 87 95 63 9 5 5 4 0 5 5 5 5 5 5 5 9 41 59 95 86 95 90 100 100 100 100
100 100 100 100 100 100 100 100 100 88 68 65 99 97 100 17 5 5 3 2 5 4 5 5 6 56 86 77 89 99 100 95 98 100 100 100 100 100
100 100 100 100 100 100 100 100 100 100 84 69 91 24 5 5 5 4 4 2 4 0 5 5 31 88 98 92 98 100 100 100 100 100 100 100 100 100
100 100 100 100 100 100 100 100 100 91 59 22 9 5 5 5 5 5 4 5 0 0 5 5 6 12 51 98 99 95 100 100 100 100 100 100 100 100
100 100 100 100 100 100 100 100 100 100 99 81 54 5 5 5 5 5 37 5 5 0 4 5 5 5 5 60 93 93 89 76 82 100 100 100 100 100
100 100 100 100 100 100 100 100 100 100 100 96 13 7 5 5 5 6 7 5 5 5 4 5 5 5 5 5 5 5 5 13 93 97 97 97 98 99
100 100 100 100 100 100 100 100 97 100 95 96 83 22 14 75 5 42 5 5 5 4 5 5 5 4 5 5 5 5 5 5 56 99 100 100 100 100
100 100 100 100 100 100 100 100 97 100 100 100 100 100 97 5 86 74 5 93 94 5 5 6 5 5 5 0 2 5 5 5 42 100 100 100 100 100
100 100 100 100 100 100 100 97 100 100 100 100 100 32 21 99 28 78 50 88 92 21 5 81 5 5 0 0 1 5 5 17 7 12 96 99 100 100
100 100 100 100 100 97 100 100 100 100 100 53 19 96 88 93 100 99 66 68 32 5 5 87 4 5 0 0 3 5 5 5 5 23 99 100 100 100
100 100 100 100 100 100 100 100 100 27 71 97 100 95 86 20 10 5 5 64 93 8 5 68 5 5 5 5 0 0 5 8 5 5 11 93 100 100
100 100 92 64 19 57 96 98 100 97 87 96 35 5 4 0 3 5 23 88 100 87 5 83 6 62 72 5 5 4 0 4 5 5 19 94 99 100
47 47 48 98 100 100 100 65 5 40 66 5 3 0 0 2 5 5 5 82 100 100 5 100 96 96 100 90 12 5 5 5 5 5 5 27 98 99
100 100 55 90 100 90 99 41 56 70 3 0 4 5 5 5 5 5 5 6 55 99 10 100 98 88 100 91 94 5 5 5 5 13 41 85 84 35
100 100 99 68 12 5 3 5 6 4 5 5 5 5 5 5 5 5 5 5 6 40 13 69 88 91 100 100 98 84 96 93 5 28 72 13 59 19
30 5 5 5 5 5 0 0 0 2 9 7 13 20 8 38 5 5 80 76 100 17 5 5 38 92 99 100 100 90 45 100 99 47 79 22 48 92
25 5 5 5 5 1 0 1 3 5 5 5 87 100 87 66 66 14 87 100 100 95 43 5 5 32 86 94 100 91 90 78 20 55 96 94 87 71
5 4 3 5 5 5 5 5 5 14 9 82 100 100 100 100 100 85 98 100 100 98 95 5 43 96 90 100 98 96 100 79 61 90 100 100 99 85
3 3 5 5 5 5 5 65 86 60 45 99 100 99 100 100 100 91 97 98 100 99 82 84 100 100 100 100 100 100 100 100 97 99 67 96 100 100
0 1 5 5 5 64 85 95 98 88 90 90 96 97 99 100 96 98 100 100 96 79 100 99 100 100 100 100 100 98 100 100 100 100 87 75 75 55
0 5 5 9 58 88 90 88 92 99 100 94 90 100 100 100 99 100 100 100 100 99 100 84 75 82 100 96 99 100 100 100 100 100 100 100 99 88
1 5 5 40 72 93 87 90 98 90 92 99 95 97 99 99 100 100 100 100 100 100 100 96 99 100 100 100 99 98 100 100 100 100 100 100 100 100
5 5 30 39 63 78 99 97 98 88 94 99 97 99 100 99 99 100 100 100 100 100 100 100 100 92 91 100 100 100 100 100 100 100 100 100 100 100

GFSNE_prec_cloud_033.txt.gz
Cloud_Cover
100 100 100 100 100 100 100 100 100 100 100 100 99 78 54 68 5 5 5 5 5 5 5 5 5 5 5 4 2 5 8 3 80 78 88 100 94 100
100 100 100 100 100 100 100 100 100 100 100 100 100 100 46 79 24 5 5 5 5 5 3 5 5 5 5 7 82 98 77 92 97 100 100 100 100 100
100 100 100 100 100 100 100 100 100 100 100 100 100 100 100 96 86 80 69 8 16 5 1 5 5 6 62 92 47 72 92 100 100 100 100 100 100 100
100 100 100 100 100 100 100 100 100 100 100 100 100 100 100 100 100 70 86 72 8 68 5 9 5 6 5 5 5 94 99 100 90 81 99 95 100 100
100 100 100 100 100 100 100 100 100 100 100 100 100 100 100 100 100 100 81 98 81 72 59 5 5 7 5 5 38 56 25 5 34 72 77 92 96 90
100 100 100 100 100 100 100 100 100 100 100 100 100 100 100 100 96 100 100 100 100 92 7 70 70 5 5 5 5 5 5 5 5 5 78 97 94 96
100 100 100 100 100 100 100 100 100 100 100 100 100 100 99 100 100 100 96 100 100 91 100 24 67 5 5 4 5 5 4 5 6 74 84 98 100 100
100 100 100 100 100 100 100 100 100 100 100 100 100 100 96 100 99 100 100 89 100 32 21 100 5 5 4 5 0 5 5 5 5 91 98 100 100 100
100 100 100 100 100 100 100 100 100 100 100 100 100 100 100 100 100 100 97 100 100 54 59 82 5 5 5 0 4 5 5 5 5 5 5 96 100 100
100 100 100 100 100 100 100 100 100 100 100 100 98 100 100 100 100 98 82 86 88 13 60 80 1 5 4 5 5 5 5 5 5 6 95 95 100 100
100 100 100 100 100 100 100 100 95 48 92 100 100 100 100 44 26 52 84 88 86 22 10 73 5 5 5 5 0 0 5 5 5 5 10 84 99 100
100 100 100 100 100 100 100 100 92 99 97 76 5 5 5 3 4 5 61 99 100 85 5 60 9 57 83 5 5 5 5 5 5 5 16 90 100 100
100 100 100 100 90 98 98 66 22 46 28 5 3 0 5 5 5 5 34 90 100 95 5 100 86 92 100 98 8 5 5 5 5 7 5 57 89 93
100 69 21 17 90 69 32 16 30 35 5 0 4 5 5 5 5 59 23 41 69 86 5 92 96 94 100 95 96 8 5 5 28 100 15 54 31 12
100 97 90 56 38 66 87 54 5 0 3 5 5 57 53 36 34 60 64 83 82 80 46 34 100 98 100 100 99 76 92 11 85 91 5 80 86 68
100 100 100 97 82 9 5 0 0 5 25 73 56 25 13 71 85 83 99 88 86 7 5 5 5 81 100 100 100 100 98 99 100 20 64 56 88 86
46 15 5 5 5 1 1 5 5 8 57 86 98 96 78 81 88 80 89 93 98 86 33 5 5 89 95 100 100 91 98 84 26 92 98 92 89 88
5 5 5 4 5 5 5 7 6 58 77 99 100 100 93 99 99 86 89 95 100 99 98 58 85 97 48 92 26 74 76 94 78 89 100 100 88 100
4 0 5 5 5 75 95 100 98 89 86 100 100 100 100 100 100 95 91 97 97 100 94 100 100 100 100 100 86 85 100 100 100 99 97 100 100 100
0 3 5 5 36 97 98 100 100 100 100 100 100 100 100 100 98 99 94 100 100 100 100 96 90 98 100 100 100 99 100 100 100 100 100 92 75 81
0 4 5 5 42 95 100 100 100 100 100 100 100 100 100 100 99 100 100 98 100 100 100 85 10 66 100 100 100 85 100 100 100 100 100 100 100 100
1 5 5 5 34 78 88 100 100 100 99 100 100 100 100 100 100 100 100 100 96 99 100 87 36 77 100 100 100 100 100 100 100 100 100 100 100 100
5 5 5 5 5 59 69 78 91 100 98 100 100 100 100 100 99 100 100 100 100 100 100 99 100 96 100 100 100 89 100 100 100 100 100 100 100 100

GFSNE_prec_cloud_036.txt.gz
Cloud_Cover
100 100 100 100 100 100 100 100 100 100 100 100 100 100 100 100 100 100 100 99 70 18 44 5 5 5 5 5 5 5 5 0 5 13 60 97 98 100
100 100 100 100 100 100 100 100 100 100 100 100 100 100 100 100 100 91 52 80 76 96 5 5 5 5 5 5 0 5 40 28 97 100 100 100 100 100
100 100 100 100 100 100 100 100 100 100 100 100 100 100 100 100 100 100 86 88 100 100 99 56 5 5 5 5 6 10 6 79 93 86 100 100 100 100
100 100 100 100 100 100 100 100 100 100 100 100 100 100 100 100 100 100 100 100 100 100 100 8 20 8 5 5 5 5 53 36 98 83 88 93 72 87
100 100 100 100 100 100 100 100 100 100 100 100 100 100 100 100 100 100 100 100 100 100 99 12 5 5 6 15 62 100 13 96 6 5 5 17 77 82
100 100 100 100 100 100 100 100 100 100 100 100 100 100 100 100 100 100 100 100 100 100 89 70 62 100 97 100 65 55 34 5 5 5 5 10 31 43
100 100 100 100 100 100 100 100 100 100 100 100 100 100 100 100 100 100 100 100 100 100 100 100 96 42 54 98 100 14 4 5 5 5 7 26 61 71
100 100 100 100 100 100 100 100 86 100 99 100 100 100 100 100 100 100 100 100 100 100 100 50 20 100 100 9 0 5 5 5 5 14 81 96 98 100
100 100 100 100 100 100 100 100 100 100 100 100 100 87 90 100 100 100 100 100 100 100 98 100 99 38 5 0 4 5 5 5 5 5 5 67 98 100
100 100 100 100 100 100 100 100 100 100 100 100 96 100 100 100 100 100 92 93 93 62 96 86 5 15 5 5 5 5 5 5 5 5 6 67 96 90
100 100 100 100 100 100 88 100 100 100 100 100 100 100 100 51 48 76 67 98 95 54 22 84 5 96 37 2 3 4 5 5 5 5 10 74 99 92
100 100 100 100 92 100 100 100 100 100 100 100 59 24 5 15 17 5 82 96 100 99 70 45 66 86 80 5 5 5 5 5 5 5 28 77 99 100
100 100 100 100 100 100 100 100 100 100 100 100 73 83 51 5 5 21 57 82 100 100 21 100 76 82 100 99 21 5 5 2 5 5 5 63 98 99
100 100 100 100 100 100 100 100 100 100 98 34 2 5 5 54 87 88 89 87 90 76 7 100 99 99 100 100 95 86 5 5 5 5 18 23 79 98
100 100 100 100 68 59 30 10 5 2 0 4 5 52 91 85 88 87 83 97 100 94 83 84 100 100 100 100 100 85 99 19 5 20 51 52 87 100
24 32 34 14 5 4 0 0 0 2 5 38 61 16 5 56 96 97 94 93 93 78 93 38 19 98 100 100 100 100 100 99 40 6 78 74 100 100
60 31 6 5 0 0 0 3 5 5 35 96 93 88 80 79 90 93 94 96 100 100 70 65 89 100 100 100 100 88 99 99 94 76 99 100 90 97
8 5 0 0 0 1 5 8 58 85 98 90 94 100 98 99 98 97 100 100 100 100 100 98 100 100 90 72 87 58 76 91 96 96 100 100 99 80
2 0 0 5 5 46 99 99 95 100 92 99 100 100 100 100 100 100 100 100 100 100 100 100 100 100 100 100 87 100 92 67 99 100 99 100 100 100
0 1 5 5 36 94 96 100 99 99 100 100 100 100 100 100 100 100 100 100 100 96 98 99 95 92 100 100 100 89 77 56 100 100 100 100 100 100
0 1 5 5 82 99 100 100 99 95 96 100 100 100 100 100 100 100 100 100 100 98 100 76 13 49 68 100 100 74 56 79 99 100 100 100 100 100
5 5 5 5 67 96 100 100 100 95 96 98 100 100 100 100 100 100 100 100 100 100 100 95 82 100 100 100 100 100 100 100 100 100 100 100 100 100
5 5 5 5 48 76 94 82 80 81 87 94 97 100 100 100 100 100 100 100 100 100 100 100 82 94 100 100 100 100 100 100 100 100 100 100 96 99

GFSNE_prec_cloud_042.txt.gz
Cloud_Cover
100 100 100 100 100 100 100 100 100 100 100 100 100 100 100 100 100 100 100 100 100 100 100 100 100 100 100 100 89 21 85 73 38 96 46 15 5 80
100 100 100 100 100 100 100 100 100 100 100 100 100 100 100 100 100 100 100 100 100 100 100 100 100 100 100 100 90 100 100 100 57 80 60 58 91 100
100 100 100 100 100 100 100 100 100 100 100 100 100 100 100 100 100 100 100 100 100 100 100 100 100 100 100 100 100 100 100 100 100 91 84 100 100 100
100 100 100 100 100 100 100 100 100 100 100 100 100 100 100 100 100 100 100 100 100 100 100 100 100 100 100 100 32 76 65 69 77 55 74 69 99 96
100 100 100 100 100 100 100 100 100 100 100 100 100 100 100 100 100 100 100 100 100 100 100 100 100 100 72 53 75 60 54 100 94 64 100 100 69 93
100 100 100 100 100 100 100 100 100 100 100 100 100 100 100 100 100 100 100 100 100 100 100 100 50 32 100 92 100 99 100 88 100 35 57 100 100 100
100 100 100 100 100 100 100 100 100 100 100 100 100 100 100 100 100 100 100 100 97 100 80 17 26 77 94 83 17 20 100 73 16 5 56 86 93 97
100 100 100 100 100 100 100 100 100 100 100 100 100 100 100 100 100 99 90 100 100 87 89 100 23 20 82 58 98 8 20 29 78 87 94 80 99 100
100 100 100 100 100 100 100 100 100 100 100 100 100 100 100 100 89 94 99 100 100 100 100 100 93 99 85 56 5 5 5 5 8 5 5 7 29 95
100 100 100 100 100 100 100 100 100 100 100 100 100 100 100 100 100 100 100 100 100 99 99 99 46 22 5 5 5 5 5 5 5 5 5 5 32 100
100 100 100 100 100 100 100 100 100 100 100 100 100 100 100 100 100 100 100 100 100 71 28 23 5 5 3 1 0 0 0 5 5 5 5 83 92 79
78 100 100 100 100 100 100 100 100 100 100 100 98 96 91 92 71 49 25 5 64 46 18 5 6 5 27 5 0 0 2 2 5 5 5 30 99 98
2 4 4 5 5 30 32 5 7 13 5 5 5 5 5 3 1 5 5 5 64 46 56 95 94 94 97 87 5 5 5 4 5 5 5 5 61 94
5 5 5 7 5 5 5 5 6 5 5 5 5 5 5 4 5 5 14 52 91 91 91 100 99 96 100 100 98 5 5 5 5 5 5 5 5 5
5 5 41 28 8 6 5 5 5 5 5 5 0 5 5 5 5 5 5 63 98 99 100 100 100 85 100 100 98 77 92 5 5 5 5 5 5 5
10 5 5 5 5 5 5 5 3 5 4 4 5 5 5 5 5 9 44 97 100 100 100 100 100 97 98 100 100 72 10 97 19 5 5 5 5 5
5 5 5 5 5 5 0 0 0 5 5 5 6 77 97 99 100 100 100 100 100 100 100 92 98 100 100 100 100 89 80 78 55 7 40 85 35 5
5 5 5 5 5 0 0 1 5 48 88 98 100 100 97 98 100 100 100 100 100 100 100 100 100 100 99 85 100 87 80 100 59 44 47 98 100 26
5 5 5 5 5 5 5 5 92 100 100 100 100 100 100 100 100 100 100 100 98 100 86 98 100 100 100 99 12 58 83 70 62 98 92 85 74 43
14 5 5 5 5 5 5 5 98 100 100 100 100 100 100 100 100 100 100 100 100 95 92 80 99 100 100 91 97 49 18 11 58 86 63 20 68 85
13 5 5 5 5 5 5 28 62 98 100 100 98 88 86 100 100 100 92 98 100 100 100 82 18 99 100 100 100 51 6 5 5 19 9 93 100 100
5 5 5 5 5 5 7 31 33 9 6 15 5 5 34 56 100 100 99 100 100 100 100 98 100 100 100 100 100 99 73 43 5 72 100 96 100 100
5 5 5 5 5 5 47 12 5 5 22 5 24 26 80 99 100 100 100 100 100 100 100 97 97 98 100 100 100 100 100 93 78 89 87 7 6 67

GFSNE_prec_cloud_045.txt.gz
Cloud_Cover
41 70 98 51 100 100 100 100 100 100 100 100 100 100 100 100 100 100 100 100 100 100 100 100 100 100 100 100 100 100 100 100 100 100 100 88 62 30
100 100 100 100 100 100 100 100 100 100 100 100 100 100 100 100 100 100 100 100 100 100 100 100 100 100 100 100 100 100 100 90 94 39 100 100 100 100
93 100 100 100 100 100 100 100 100 100 100 100 100 100 100 100 100 100 100 100 100 100 100 100 100 100 100 100 100 100 100 97 98 100 100 100 100 100
96 95 100 100 100 100 100 100 100 100 100 100 100 100 100 100 100 100 100 100 100 100 100 100 100 100 100 100 100 100 100 100 100 100 100 100 100 100
100 100 100 100 100 100 100 100 100 100 100 100 100 100 100 100 100 100 100 100 100 100 100 100 100 100 100 100 100 100 100 100 100 100 100 94 98 94
100 100 100 100 100 100 100 100 100 100 100 100 100 100 100 100 100 100 100 100 100 100 100 100 100 100 100 100 100 100 100 100 91 100 58 17 48 23
100 100 100 100 100 100 100 100 100 100 100 100 100 100 100 100 100 100 100 100 100 100 100 100 100 100 100 100 91 100 100 100 100 52 18 65 96 91
100 100 100 100 100 100 100 100 100 100 100 100 100 100 100 100 100 100 97 97 100 99 96 100 97 100 100 100 100 100 52 27 10 71 30 6 89 100
100 99 93 100 100 100 100 100 100 100 100 100 90 100 99 99 100 94 100 97 100 100 100 100 87 100 97 76 75 9 5 7 10 8 5 63 92 98
47 35 33 75 67 90 100 100 96 100 100 100 99 99 100 100 100 100 100 100 100 100 100 100 100 98 84 66 27 5 5 5 12 13 12 13 8 10
29 7 5 5 7 7 16 15 56 94 100 100 100 100 100 100 100 100 100 92 77 58 48 59 9 6 5 5 4 4 5 1 5 5 5 6 8 8
4 0 1 2 5 5 5 5 5 16 45 74 75 25 5 5 5 5 5 49 70 50 5 30 12 8 31 5 5 4 5 3 5 5 5 5 22 27
0 0 4 6 5 14 65 5 7 85 8 5 5 5 5 5 5 5 5 5 57 45 15 89 96 100 100 56 6 5 5 5 5 5 5 5 5 37
0 5 5 7 5 5 5 5 5 5 5 4 2 2 5 5 5 5 5 8 11 61 84 100 100 100 100 100 99 8 5 5 5 5 5 5 5 5
5 11 5 5 5 5 5 5 5 1 0 2 0 5 21 5 6 16 5 5 5 14 89 100 100 100 100 100 100 89 86 5 5 5 5 6 5 5
5 5 5 5 5 5 5 5 5 0 2 5 5 5 5 8 21 41 67 81 41 6 24 100 100 100 100 100 100 90 10 87 23 5 15 5 6 5
20 33 20 6 5 5 5 5 0 4 13 33 70 89 99 100 98 98 100 90 97 83 54 14 91 98 100 98 100 95 89 94 87 84 79 100 76 88
64 45 6 5 5 5 4 0 5 6 58 100 100 100 100 100 100 100 100 93 96 75 65 10 26 93 87 51 79 94 100 100 98 80 90 100 100 100
7 5 5 5 5 5 5 48 35 12 100 100 100 100 100 100 100 98 98 94 100 92 66 5 46 98 100 94 12 8 44 5 53 75 84 98 88 35
5 5 5 5 5 5 5 32 7 5 46 99 100 100 100 100 92 89 87 99 100 97 89 40 93 100 100 90 100 100 44 83 78 89 83 69 69 76
5 5 5 5 5 5 5 5 58 30 14 73 79 80 42 64 100 99 99 92 100 98 97 100 100 98 95 100 100 41 18 5 8 72 91 99 100 100
5 9 5 5 5 5 5 5 40 10 21 33 40 50 48 61 100 100 98 100 100 100 100 100 100 95 98 100 99 98 83 5 5 5 6 55 92 100
12 12 11 5 5 6 50 56 53 12 24 63 72 91 76 100 85 100 100 100 100 100 100 100 100 100 100 100 100 100 100 74 15 64 49 5 5 8

GFSNE_prec_cloud_048.txt.gz
Cloud_Cover
72 63 96 100 100 100 100 100 100 100 80 100 100 100 100 100 100 100 100 100 100 100 100 100 100 100 100 100 100 100 100 100 100 100 100 88 64 64
99 100 100 100 100 100 100 100 100 100 100 100 100 100 100 100 100 100 100 100 100 100 100 100 100 100 100 100 100 100 100 100 100 100 100 98 100 100
88 100 100 100 100 100 100 99 89 100 100 100 100 100 100 100 100 100 100 100 100 100 100 100 100 100 100 100 100 100 100 100 100 100 100 100 100 99
100 100 100 100 100 100 100 100 100 100 100 100 100 100 100 100 100 100 100 100 100 100 100 100 100 100 100 100 100 100 100 100 100 100 100 100 100 100
98 100 100 100 100 100 100 100 100 100 100 100 100 100 100 100 100 100 100 100 100 100 100 100 100 100 100 100 100 100 100 100 100 100 100 100 100 100
100 100 100 98 100 100 100 100 100 100 100 100 100 100 100 100 100 100 100 100 100 100 100 100 100 100 100 100 100 100 100 100 100 100 100 100 100 97
99 100 95 99 97 100 100 99 100 100 100 100 100 100 100 100 100 100 100 100 100 100 98 100 100 100 100 100 100 100 100 100 100 100 100 100 100 100
100 100 100 100 100 100 100 100 100 100 100 100 100 100 100 100 98 100 100 96 77 51 99 100 97 100 100 100 100 100 100 100 100 100 100 100 100 99
89 53 79 81 70 59 70 86 90 100 85 69 59 70 70 33 9 20 87 84 74 9 5 61 5 6 5 16 100 99 97 86 50 49 65 43 38 61
45 40 31 20 41 32 24 7 5 5 4 9 49 10 5 5 8 92 92 99 93 86 94 75 59 8 6 5 5 5 5 5 21 19 35 28 6 5
8 5 4 4 5 5 5 5 5 5 5 23 12 5 8 39 22 43 66 63 23 8 40 27 6 5 5 5 5 5 5 5 5 5 5 5 5 14
0 0 4 5 7 31 5 5 5 5 5 5 6 5 5 2 5 5 5 44 77 16 5 30 11 11 49 5 5 5 5 0 5 5 5 5 15 16
0 0 5 5 9 5 5 5 5 46 5 5 5 3 0 0 0 2 3 5 51 25 5 56 90 98 96 64 6 5 5 5 5 2 5 5 5 6
5 5 6 6 5 5 5 5 5 5 5 2 0 0 2 5 5 7 5 15 43 18 5 41 100 100 100 96 100 39 18 28 5 5 5 5 5 5
48 68 66 49 5 5 18 5 5 5 2 3 0 5 20 5 40 15 5 5 5 6 5 96 98 100 100 100 79 88 100 21 12 5 5 5 5 5
85 66 26 5 5 21 5 5 5 4 2 5 5 5 5 47 73 90 96 100 90 6 5 12 94 100 100 100 100 67 27 95 48 27 73 34 25 31
76 57 53 14 31 5 5 5 5 5 5 15 66 95 100 100 100 96 100 100 96 85 43 5 5 24 72 100 100 100 85 82 80 97 100 100 100 98
98 91 32 40 40 33 5 5 5 7 5 89 100 100 100 100 100 100 94 82 98 99 85 17 56 66 69 5 66 97 91 94 65 40 46 96 89 5
100 98 51 55 11 5 5 53 42 5 5 6 100 100 100 100 100 98 64 90 83 77 52 8 87 99 100 99 13 35 5 5 5 5 7 95 93 7
36 62 56 31 20 5 5 39 6 5 41 5 43 71 98 96 94 99 100 99 100 97 97 100 100 100 100 94 100 99 100 15 12 80 75 77 36 76
71 62 14 5 5 5 5 5 54 15 50 71 75 85 82 89 94 98 97 48 73 86 100 98 73 96 96 100 100 98 100 97 35 87 68 95 99 100
78 33 6 12 23 15 5 12 25 10 36 54 63 66 59 77 100 99 91 100 99 100 100 87 56 64 98 100 99 98 76 55 5 56 99 96 98 100
17 14 14 68 60 5 5 5 5 5 23 24 55 60 68 98 86 94 100 100 100 100 100 100 100 100 100 100 99 100 100 78 69 70 6 5 5 5

GFSNE_prec_cloud_051.txt.gz
Cloud_Cover
100 100 99 99 88 31 95 94 100 100 100 100 100 100 100 81 61 85 100 100 100 100 100 100 100 100 100 100 100 100 100 100 100 100 100 100 100 100
100 100 100 100 100 100 100 100 100 100 100 100 70 92 94 89 69 100 100 100 100 100 100 100 100 100 100 100 100 100 100 100 100 100 100 100 100 100
77 56 100 100 96 100 100 100 100 100 100 100 100 100 100 100 100 100 100 100 100 100 100 100 100 100 100 100 100 100 100 100 100 100 100 100 100 100
67 100 100 99 100 100 100 100 100 100 100 100 100 100 100 100 100 100 100 100 100 100 100 100 100 100 100 100 100 100 100 100 100 100 100 100 100 100
74 45 4 8 57 100 100 100 100 100 99 100 100 100 100 100 100 100 100 100 100 100 100 100 100 100 100 100 100 100 100 100 100 100 100 100 100 100
89 70 31 37 78 100 95 75 63 61 88 100 100 100 100 100 100 100 100 100 100 100 100 100 100 100 100 100 100 100 100 100 100 100 100 100 100 100
100 100 100 100 99 94 100 100 100 100 100 100 100 100 100 100 100 100 100 100 100 100 100 100 100 100 100 100 100 100 100 100 100 96 100 100 100 100
100 100 95 100 100 100 100 100 100 50 90 64 97 99 100 97 70 85 62 47 61 33 6 47 89 99 84 100 76 99 100 100 100 100 54 96 100 100
19 22 55 11 71 60 20 6 75 94 97 33 7 17 20 6 5 8 5 5 5 5 18 27 15 78 53 74 63 6 22 39 51 71 85 100 100 100
76 51 16 5 5 8 5 5 5 4 5 5 5 5 5 5 5 5 5 5 5 5 5 67 5 5 5 5 8 5 5 5 6 30 67 100 100 100
4 2 4 5 5 34 5 5 5 5 8 40 5 5 5 8 9 5 5 45 17 5 5 5 5 5 8 18 26 17 5 56 8 5 5 6 14 12
0 0 5 6 17 19 5 5 5 20 12 5 4 20 4 3 2 1 5 40 74 6 5 35 11 5 53 2 5 12 62 22 5 5 5 5 18 26
0 5 5 6 12 5 37 14 20 12 5 5 5 5 0 0 2 5 4 5 57 37 5 60 89 94 98 68 6 5 5 5 5 4 2 5 5 12
5 26 47 47 18 17 26 48 42 8 5 5 5 2 3 7 5 6 5 27 5 5 5 12 68 50 94 98 96 8 5 5 5 5 5 5 5 8
90 66 71 96 100 100 99 54 6 5 5 5 5 5 21 5 42 15 5 5 5 6 5 38 17 64 97 99 89 63 88 23 12 5 7 5 5 11
61 100 100 100 63 46 18 7 5 30 20 5 5 5 5 50 52 100 100 88 93 12 5 26 56 58 100 100 96 84 91 97 65 71 51 43 89 100
41 100 98 99 100 81 18 30 49 23 11 17 46 59 100 100 100 100 100 100 94 84 51 5 5 10 27 45 96 90 89 90 93 94 93 90 100 100
5 5 60 80 54 11 12 6 5 24 28 39 5 73 98 100 100 100 100 100 73 60 63 43 67 63 60 20 9 71 78 85 94 62 53 94 90 10
100 82 64 71 86 41 5 30 6 44 38 67 68 69 14 18 100 100 100 92 96 79 61 55 97 100 100 99 5 89 62 87 47 7 100 99 71 36
44 64 48 70 23 5 16 5 6 62 45 6 72 65 67 92 100 98 96 94 96 87 94 45 86 100 100 96 100 74 98 40 22 23 50 56 8 66
17 68 48 60 51 50 14 54 93 54 46 54 79 81 67 93 99 87 85 61 73 61 77 30 44 99 100 100 100 32 5 77 63 49 84 95 99 94
58 75 100 100 94 21 46 71 65 27 8 6 25 58 45 69 99 93 92 97 92 95 91 59 45 74 89 100 97 94 7 5 5 11 90 98 100 99
96 100 100 79 97 59 65 68 44 16 19 18 46 23 56 97 82 96 98 97 100 100 100 100 97 99 100 100 98 99 99 64 58 73 21 5 28 7

GFSNE_prec_cloud_054.txt.gz
Cloud_Cover
100 100 100 100 96 66 100 100 100 100 100 100 95 100 71 63 60 79 26 10 73 100 100 100 100 100 100 100 100 100 100 100 100 100 100 100 100 100
61 94 100 100 100 100 100 98 100 100 100 100 100 100 100 100 98 22 100 100 100 98 100 100 100 100 100 100 100 100 100 100 100 100 100 100 100 100
74 40 84 100 94 76 100 100 98 100 100 100 100 100 100 100 100 100 100 100 100 100 100 100 100 100 100 100 100 100 100 100 100 100 100 100 100 100
5 100 100 89 57 100 100 100 100 100 100 100 100 95 80 100 100 100 100 100 100 100 100 100 100 100 100 100 100 100 100 100 100 100 100 100 100 100
26 100 64 4 26 33 90 100 100 98 83 97 100 100 98 100 100 100 100 100 100 100 100 100 100 100 100 100 100 100 100 100 100 100 100 100 100 100
100 100 82 32 21 38 69 74 84 100 100 100 100 96 99 100 100 100 100 100 100 100 100 100 100 100 100 100 100 100 100 100 100 100 100 100 100 100
100 100 100 100 100 100 100 100 100 100 100 100 99 91 92 100 100 100 100 100 100 100 100 100 80 74 92 100 100 100 100 100 100 100 100 100 100 100
100 67 99 98 85 100 100 100 100 100 98 75 48 32 23 21 14 23 19 13 11 5 5 5 5 5 5 6 42 99 100 99 76 100 100 100 100 100
7 11 6 5 25 8 5 5 12 20 35 26 5 5 5 7 5 5 5 5 5 5 5 5 5 5 4 3 5 7 30 36 50 99 100 100 100 100
55 60 6 5 12 5 5 5 5 26 15 5 5 5 5 5 5 5 5 5 5 5 5 85 5 5 5 5 5 5 5 5 7 56 100 100 100 100
4 5 5 8 18 62 5 5 5 64 51 40 13 20 9 12 6 5 8 55 18 5 5 6 5 5 5 5 5 72 37 11 78 72 37 69 88 77
5 5 5 5 24 20 5 7 70 71 81 75 46 55 6 5 5 5 22 55 74 6 4 38 21 5 11 5 5 5 35 96 89 5 5 5 19 5
2 5 5 5 7 29 65 84 71 60 69 67 54 5 5 5 5 5 5 5 56 41 5 41 89 49 69 5 5 5 4 3 5 5 1 4 5 5
0 3 5 8 46 63 54 77 99 100 85 16 5 5 5 5 7 10 5 21 5 5 5 12 69 82 89 96 85 5 5 5 5 5 5 5 5 8
2 3 5 4 5 5 50 99 100 45 5 5 17 14 5 5 50 18 5 5 5 5 26 60 75 77 81 100 93 73 96 5 10 5 7 6 5 5
8 96 84 37 12 34 99 94 95 70 57 68 31 15 8 51 58 100 100 97 85 14 5 26 71 89 95 99 99 100 82 90 58 58 16 55 13 5
48 6 53 99 100 100 100 100 100 80 98 99 69 58 36 59 96 100 100 95 96 88 15 5 5 11 22 22 94 54 6 14 12 5 38 87 92 62
5 5 5 5 26 86 100 100 100 100 100 100 77 68 66 59 50 46 100 100 98 72 50 34 66 60 31 5 8 12 26 18 5 5 55 95 95 89
5 5 5 5 34 82 96 100 100 100 100 100 74 75 71 81 93 78 23 93 65 61 24 58 97 100 100 98 5 17 62 5 5 67 11 22 32 75
5 5 5 5 23 67 97 100 100 100 77 93 97 78 67 85 89 98 71 88 95 58 50 54 80 99 98 84 99 11 5 5 5 5 5 9 7 87
17 13 26 6 13 76 100 100 64 56 76 90 80 78 64 96 84 69 73 65 79 78 92 36 40 87 98 100 100 33 5 5 5 19 26 93 100 90
86 80 81 61 95 80 76 72 71 48 26 11 53 47 68 64 91 80 81 92 81 79 72 38 44 74 96 100 65 59 6 5 5 12 65 86 96 95
100 100 80 91 96 82 97 75 78 100 67 69 100 100 64 99 88 92 94 99 94 98 98 98 80 92 100 100 96 100 100 83 57 99 58 50 80 87

GFSNE_prec_cloud_057.txt.gz
Cloud_Cover
100 100 100 100 100 94 100 100 100 100 100 100 3 99 91 100 100 96 13 0 5 45 67 89 76 100 100 100 100 100 100 100 100 100 100 100 100 100
100 96 92 95 78 87 100 100 100 100 99 100 100 81 100 100 100 100 96 31 100 96 77 75 97 100 100 100 100 100 100 100 100 100 100 100 100 100
99 100 98 84 100 100 100 100 100 88 99 100 100 90 94 39 100 100 99 100 100 99 100 100 100 100 100 100 100 100 100 100 100 100 100 100 100 100
100 98 67 84 33 34 59 97 80 100 99 100 98 98 100 71 100 98 85 100 77 100 100 100 100 100 100 98 100 100 100 100 100 100 100 100 100 100
100 100 100 82 32 50 48 56 42 78 71 88 97 95 92 99 84 70 100 99 100 99 82 93 44 63 97 99 100 100 100 100 100 100 100 100 100 100
100 100 98 23 93 73 72 72 96 100 100 100 100 96 100 100 100 100 78 100 100 100 100 100 89 100 100 100 100 100 100 100 100 100 100 100 100 100
100 100 100 100 100 100 100 100 100 92 87 100 100 94 77 77 100 83 44 16 36 12 40 17 17 32 23 34 32 62 75 92 90 92 84 100 100 100
100 100 99 98 99 100 100 100 100 75 83 95 30 15 7 16 55 6 5 11 5 5 5 0 0 0 0 0 0 0 0 0 0 5 99 100 100 97
100 61 5 5 3 5 5 5 5 5 5 5 5 5 38 73 43 34 39 11 5 5 5 0 1 0 0 0 1 4 5 5 5 5 5 41 98 100
87 6 5 5 6 5 5 5 5 10 5 5 5 7 75 99 72 62 16 6 5 5 5 4 4 0 0 2 4 5 5 4 5 13 58 100 100 100
23 5 3 5 26 5 3 0 2 5 9 6 9 63 80 34 8 6 46 5 5 5 5 5 5 5 5 5 5 61 20 40 10 97 100 100 100 100
5 0 5 5 6 5 5 3 5 5 5 7 25 5 5 5 44 34 5 5 5 5 5 5 5 5 7 3 2 0 0 5 48 95 98 66 94 80
4 0 0 11 5 7 5 0 4 5 5 5 6 28 67 70 71 52 55 14 6 5 15 33 71 85 87 62 5 5 5 4 4 3 4 5 5 6
5 5 5 5 5 30 5 5 5 5 6 70 99 88 95 100 100 98 51 39 5 5 5 5 77 66 93 94 75 5 5 5 5 5 5 5 5 5
5 5 5 5 5 5 5 5 5 64 100 89 91 100 100 100 100 100 75 60 8 24 5 22 48 76 90 98 85 68 82 11 25 54 8 5 5 5
5 55 8 5 5 5 5 5 5 5 5 20 94 100 98 71 99 100 100 92 89 81 34 39 5 71 78 92 97 100 82 84 5 5 6 20 29 12
37 28 11 5 5 5 5 5 5 5 5 6 7 65 71 54 90 87 97 95 94 97 81 31 5 10 56 45 67 5 5 5 5 61 79 82 28 5
20 36 24 8 12 5 5 5 5 15 25 63 76 80 82 61 65 57 74 93 79 74 58 5 43 39 8 5 5 5 9 6 38 76 93 97 86 5
57 56 11 16 60 27 5 5 21 13 61 74 94 100 87 22 11 6 19 65 42 21 6 70 88 100 100 99 46 18 65 66 77 77 70 80 63 5
100 78 62 74 75 65 44 14 5 17 68 50 88 93 68 76 38 52 26 64 11 8 9 69 96 100 100 99 100 49 5 5 5 19 5 8 5 42
91 100 95 99 100 100 74 10 32 53 57 90 100 100 85 87 24 9 40 38 87 97 100 78 24 94 92 99 100 62 5 5 5 27 85 99 99 92
100 100 100 100 100 100 75 91 100 92 94 100 100 96 33 85 97 94 99 100 100 100 97 45 53 93 100 100 95 63 67 19 5 6 89 80 96 100
100 100 100 99 88 100 100 100 100 73 56 14 30 79 99 100 99 100 100 100 100 100 100 99 98 99 100 100 97 100 100 99 88 60 38 5 53 100

GFSNE_prec_cloud_060.txt.gz
Cloud_Cover
100 100 100 100 100 100 100 100 100 100 100 100 76 39 51 26 58 100 33 0 39 91 88 13 18 38 47 82 82 100 100 100 100 100 100 100 100 100
100 100 100 100 100 100 100 100 92 100 100 100 100 66 98 91 33 79 76 96 84 100 98 63 36 61 100 100 100 100 100 100 100 100 100 100 100 100
100 100 100 100 100 100 100 100 88 100 100 100 100 100 96 41 58 90 99 98 98 100 100 100 100 100 100 100 100 100 100 100 100 100 100 100 100 100
42 26 24 9 100 100 100 63 12 67 56 99 90 98 81 66 95 100 91 100 99 94 100 100 100 100 100 100 100 98 14 99 100 100 82 92 100 100
18 100 100 100 100 100 80 60 74 77 98 100 100 85 100 71 100 98 67 72 65 93 76 97 100 100 99 95 98 98 90 7 18 86 100 100 100 100
100 100 100 100 100 99 90 79 98 64 85 94 100 97 100 100 100 100 88 43 19 8 5 20 5 5 8 92 25 93 84 100 100 99 100 100 100 100
100 100 100 99 92 92 99 63 53 72 93 98 98 98 98 100 80 67 29 8 52 33 5 5 5 5 5 5 5 5 8 57 91 75 48 52 23 53
100 100 100 100 100 100 92 86 49 74 94 98 84 39 43 5 5 5 5 51 99 6 5 17 5 5 2 0 0 0 1 1 5 5 5 5 5 5
100 78 100 92 96 5 98 9 5 5 4 1 0 1 2 5 5 11 48 76 56 82 84 6 5 5 5 1 0 5 5 5 5 5 5 5 5 5
100 100 100 100 90 5 14 4 5 5 5 5 5 5 5 5 7 21 51 28 72 92 78 30 5 5 5 5 5 5 33 9 5 5 6 12 42 97
100 100 100 100 61 100 37 4 0 4 5 5 3 4 5 5 5 5 6 5 14 70 61 54 19 6 5 17 5 5 5 6 5 5 85 100 100 100
100 100 100 84 54 66 6 3 5 1 5 5 5 5 5 5 5 5 14 5 42 34 72 82 47 66 58 13 5 5 5 5 5 5 5 100 100 100
100 73 81 87 100 99 5 5 5 5 5 5 5 5 5 5 5 5 5 9 30 39 40 42 96 71 75 74 5 14 14 5 5 5 5 6 29 43
100 100 100 100 100 23 6 5 5 5 5 5 5 5 5 5 5 6 5 6 50 56 80 100 92 99 100 99 68 5 5 5 5 8 14 14 5 5
100 100 100 100 100 93 15 5 5 4 4 5 5 5 5 5 6 25 64 83 76 73 79 78 94 100 100 98 84 76 84 10 48 63 72 56 46 26
100 100 100 100 100 100 23 5 4 5 5 5 5 5 5 5 42 81 91 90 96 88 74 55 72 87 92 86 82 89 87 78 8 51 71 61 77 75
100 100 100 100 100 47 5 5 5 5 5 5 5 5 8 47 11 36 74 80 89 95 88 98 82 84 80 70 62 5 5 5 5 36 93 76 73 79
100 100 88 85 53 54 5 5 7 5 5 26 5 12 5 5 5 10 62 77 73 52 58 84 99 96 29 4 7 5 10 50 80 89 100 100 87 6
100 100 100 80 85 7 5 5 5 5 20 5 5 6 54 57 68 35 8 47 5 5 5 70 99 99 99 92 11 5 6 51 97 95 71 74 71 5
100 100 100 87 31 5 22 33 13 77 29 40 96 89 37 66 47 5 5 52 9 5 6 62 95 98 100 83 98 59 83 69 53 62 48 14 22 32
100 98 99 68 58 62 63 60 88 35 78 96 97 50 65 100 53 42 66 84 92 98 97 93 90 100 100 100 100 78 5 5 9 59 89 96 100 94
84 91 70 79 96 97 80 97 75 83 68 70 60 78 85 92 96 99 99 99 98 99 99 97 95 99 100 100 100 99 93 17 5 26 98 79 91 75
83 66 94 100 100 88 98 98 99 82 45 68 94 99 98 100 100 100 100 100 100 100 100 100 100 100 100 100 100 100 100 91 18 22 6 36 99 96

GFSNE_prec_cloud_063.txt.gz
Cloud_Cover
100 100 100 100 100 100 100 100 100 86 97 99 100 100 14 18 5 13 28 98 100 100 98 72 3 0 9 28 73 78 88 100 100 100 100 99 100 100
100 100 100 100 100 100 100 100 100 100 100 100 100 88 95 19 38 54 100 100 100 100 100 100 99 97 100 100 100 100 100 52 100 100 100 100 100 100
100 100 100 100 100 100 100 80 95 96 100 100 100 87 77 92 30 93 100 100 100 100 100 100 100 100 100 100 100 100 100 100 100 100 100 100 100 100
100 100 100 100 47 68 56 98 100 100 100 100 100 94 82 57 61 100 100 98 81 60 90 100 99 100 100 100 100 100 100 100 99 99 100 100 100 100
100 100 95 83 35 49 54 99 100 100 100 100 100 86 98 71 100 100 98 17 53 35 6 48 82 56 100 100 100 100 100 100 100 5 7 25 17 99
91 27 21 32 98 100 100 100 100 100 100 100 95 100 92 100 91 78 45 16 5 5 5 5 5 5 5 19 24 15 5 89 100 70 29 27 74 100
97 97 100 94 100 100 100 100 100 100 100 100 100 100 100 100 78 36 5 5 5 1 3 5 5 10 5 5 5 5 5 5 42 100 100 100 100 100
100 100 100 100 100 100 100 100 100 71 99 100 100 97 92 5 5 4 0 3 5 0 5 5 5 5 5 5 5 4 1 0 0 5 5 5 5 5
99 100 100 100 100 100 100 100 100 91 100 100 7 5 0 0 5 5 5 5 5 4 2 4 5 5 5 5 5 5 5 5 5 5 5 5 5 5
100 100 100 100 100 100 100 80 100 100 88 26 4 5 5 5 5 5 5 5 5 5 5 5 5 5 5 5 5 5 5 6 10 5 5 5 5 11
100 100 100 100 100 100 100 97 100 93 58 13 7 2 0 1 0 1 5 5 5 5 5 5 5 5 5 26 11 5 5 5 5 5 8 8 5 62
100 100 100 100 100 100 100 100 100 97 98 19 5 0 0 2 1 0 5 5 5 7 5 5 11 5 7 25 14 54 14 5 5 5 5 5 5 39
100 100 100 100 100 100 100 100 100 100 100 100 5 0 0 5 5 5 5 5 6 5 5 5 62 5 44 35 15 25 10 5 5 5 5 5 16 85
100 100 100 100 100 100 100 100 100 100 100 99 16 5 4 5 5 5 5 5 6 5 24 50 11 54 96 100 61 5 5 5 4 5 5 5 18 17
100 100 100 100 100 100 100 100 100 100 96 32 5 5 5 5 5 5 5 5 53 5 5 29 88 96 100 100 91 78 63 5 5 5 5 5 10 32
100 100 100 100 100 100 100 100 100 100 60 9 5 5 5 5 5 5 5 5 69 10 26 30 72 100 100 90 83 92 79 44 5 5 5 5 5 6
100 100 100 100 100 100 100 100 100 11 5 5 5 5 5 5 5 7 5 10 67 5 5 60 42 5 9 46 89 67 6 5 5 5 5 100 100 56
100 100 100 100 100 100 100 100 82 5 20 21 5 5 5 5 7 5 5 5 5 5 11 10 62 84 70 4 6 6 10 5 5 51 100 100 100 87
100 100 100 100 100 100 100 85 34 52 37 5 5 5 5 26 24 16 21 5 5 5 5 5 38 94 100 99 5 4 5 5 5 5 6 11 55 6
100 100 100 99 94 97 97 79 34 5 57 64 7 22 24 42 32 22 41 5 9 5 5 5 5 33 99 94 100 30 44 64 87 93 74 11 8 18
100 100 100 90 98 100 94 65 72 58 76 56 57 76 69 90 100 76 95 88 69 93 94 96 95 98 100 100 100 84 22 5 26 39 11 81 99 100
100 100 100 100 100 100 100 99 100 69 83 92 100 92 93 100 99 100 98 99 99 100 100 100 100 100 100 100 99 100 98 22 5 23 70 90 98 99
100 100 100 100 100 100 100 100 100 100 100 100 100 87 100 100 100 100 100 100 100 100 100 100 100 100 100 100 100 100 98 21 67 85 6 8 98 97

GFSNE_prec_cloud_069.txt.gz
Cloud_Cover
100 100 100 100 100 100 100 100 100 100 100 100 100 100 99 100 100 100 80 100 100 100 100 100 100 99 77 38 82 100 99 44 6 4 54 9 100 98
60 87 83 100 100 100 100 100 100 100 100 100 100 100 81 86 100 98 92 95 100 100 100 100 100 100 100 100 100 100 100 100 85 99 100 97 100 100
42 33 88 100 100 97 100 100 100 100 100 100 99 100 99 100 100 98 100 100 100 100 100 100 100 100 100 100 100 100 100 100 100 100 100 100 100 100
98 77 100 100 100 100 100 100 100 100 96 100 100 100 100 100 100 100 100 100 100 100 48 95 94 89 32 100 100 100 100 100 100 100 100 100 100 100
100 100 100 100 100 100 98 100 100 100 100 100 100 100 100 100 100 100 100 100 100 47 5 5 2 5 68 65 77 91 100 100 100 100 100 100 98 100
100 100 100 100 100 100 100 100 100 100 100 78 100 100 100 100 100 100 100 100 100 95 16 5 0 0 3 3 5 5 17 100 100 100 100 18 7 5
100 100 100 100 100 100 100 100 100 100 100 100 100 100 100 100 100 100 100 100 100 91 20 37 4 0 0 0 0 1 3 5 5 5 5 5 5 5
100 100 100 100 100 100 100 100 100 100 100 100 100 100 100 100 100 100 100 100 100 8 52 12 5 0 0 0 0 0 0 5 5 5 5 5 5 5
100 100 100 100 100 100 100 100 100 100 100 100 100 100 100 100 100 100 100 100 99 33 12 5 0 4 5 0 0 0 5 5 10 5 5 5 5 5
95 100 100 100 100 100 96 100 100 100 100 100 100 100 100 100 100 100 100 100 100 59 8 5 5 5 5 5 0 4 3 5 5 6 6 5 9 10
50 64 100 100 100 100 100 100 100 100 100 100 100 100 100 100 100 100 100 100 100 28 6 5 5 5 5 5 5 5 3 5 5 5 5 16 11 24
99 100 100 100 100 100 100 100 100 100 100 100 100 100 100 100 100 100 100 100 100 59 5 5 6 5 7 5 5 5 5 5 5 5 5 5 5 5
100 100 100 100 100 100 100 100 100 100 100 100 100 100 100 100 100 100 100 100 97 93 19 17 76 60 68 49 5 5 5 5 5 5 5 5 5 8
100 100 100 100 100 100 100 100 100 100 100 100 100 100 100 100 100 100 100 100 39 68 43 60 55 46 85 82 14 5 5 6 10 6 5 5 5 5
100 100 100 100 100 100 100 100 100 100 100 100 100 100 100 100 100 100 100 54 16 33 51 48 49 90 70 91 78 39 84 5 5 31 11 14 6 6
100 100 100 100 100 100 100 100 100 100 100 100 100 100 100 100 100 98 77 72 88 61 38 52 49 26 96 100 87 97 82 52 10 5 5 5 5 5
100 100 100 100 100 100 100 100 100 100 100 100 100 100 100 100 100 84 97 90 66 61 52 77 38 30 55 98 94 84 94 67 5 5 36 7 5 5
100 100 100 100 100 100 100 100 100 100 100 100 100 100 100 100 99 75 86 75 56 48 61 51 74 89 100 64 51 92 96 70 6 5 8 84 56 12
100 100 100 100 100 100 100 100 100 100 100 100 100 97 100 100 100 100 98 82 60 60 62 66 67 99 100 88 84 15 62 67 56 6 14 34 36 5
100 100 92 85 97 99 96 99 100 100 100 100 100 100 100 100 100 85 78 97 81 68 86 69 89 86 75 67 100 96 18 45 62 7 5 11 7 8
100 100 100 100 100 89 91 98 100 100 100 100 100 100 100 100 100 100 95 100 97 81 84 69 53 97 100 99 100 100 94 5 39 79 83 95 97 84
100 97 95 97 99 83 86 84 89 90 100 98 100 100 100 100 100 100 100 100 81 90 100 100 94 100 100 100 98 96 86 5 5 12 31 92 98 96
100 100 100 82 84 84 84 79 94 92 87 92 88 83 95 100 100 100 100 100 100 100 99 100 100 100 100 100 100 100 86 17 5 7 5 5 14 100

GFSNE_prec_cloud_072.txt.gz
Cloud_Cover
98 45 83 99 94 67 97 72 90 100 77 100 100 76 100 100 100 100 100 99 98 100 100 100 76 100 100 100 100 100 100 15 2 1 6 5 87 56
72 30 36 19 77 75 100 100 100 100 100 100 95 100 100 100 100 100 100 100 100 100 100 100 100 100 100 100 100 100 100 99 99 92 100 100 100 100
81 46 6 19 99 96 99 100 100 100 100 100 100 100 100 100 100 100 100 100 100 100 100 100 93 100 100 100 100 100 100 93 72 100 100 100 100 100
98 99 81 95 100 100 100 100 100 100 100 100 100 100 100 100 100 100 78 100 81 100 80 97 100 100 69 100 100 100 100 100 97 100 92 46 45 99
100 100 100 100 100 100 100 100 100 100 100 100 100 100 100 100 100 100 100 100 100 100 100 100 100 100 91 98 32 100 100 100 100 100 60 72 100 100
100 100 100 100 100 100 100 100 100 100 100 100 100 100 100 100 100 100 100 100 100 100 100 100 100 86 98 21 5 5 5 19 48 100 100 90 95 50
100 100 99 97 98 100 100 100 100 100 100 100 100 100 100 100 100 100 100 100 100 100 100 100 100 100 16 5 6 6 5 5 5 5 8 5 5 5
100 100 100 100 100 100 100 100 100 100 100 100 100 100 100 100 100 100 100 100 100 100 100 100 100 100 36 5 5 38 5 5 5 5 0 0 4 5
100 100 100 92 9 59 81 93 100 91 74 95 100 100 100 100 100 100 100 100 100 100 100 100 100 100 45 34 5 15 5 5 9 5 5 5 5 5
100 100 86 5 5 18 92 100 100 100 100 88 92 100 100 100 100 100 100 100 100 100 99 100 100 95 63 10 54 38 5 5 5 4 12 5 5 5
100 94 62 100 98 100 100 75 100 100 100 100 100 100 100 100 100 100 100 100 100 100 100 100 100 100 62 38 58 96 6 5 5 5 5 14 6 12
95 72 100 100 100 100 100 100 100 100 100 100 100 100 100 100 100 100 100 100 100 100 100 100 100 100 64 45 48 23 5 5 5 5 5 5 8 5
94 72 100 100 100 100 100 100 100 100 100 100 100 100 100 100 100 100 100 100 100 100 100 100 100 91 73 76 75 19 5 5 5 5 5 14 5 10
96 100 100 100 100 100 100 100 100 100 100 100 100 100 100 100 100 100 100 100 100 100 100 100 85 87 80 81 85 41 13 5 9 5 10 54 7 5
98 100 100 100 100 100 100 100 100 100 100 100 100 100 100 100 100 100 100 100 100 100 99 97 97 94 70 96 67 63 10 5 6 55 83 36 6 6
100 100 100 100 100 100 100 100 100 100 100 100 100 100 100 100 100 100 100 100 97 100 100 100 100 100 99 77 71 50 34 65 42 47 50 17 18 5
100 100 99 100 100 100 100 100 100 100 100 100 100 100 100 100 100 100 99 100 100 100 100 100 100 100 92 80 99 99 82 86 15 21 78 38 6 5
100 100 100 100 100 100 100 100 100 100 100 100 100 100 100 100 100 100 100 100 100 100 96 100 100 100 100 100 100 100 99 99 63 39 43 96 50 6
100 100 100 100 100 100 100 100 100 100 88 97 94 97 100 100 100 100 100 100 100 100 100 100 100 100 98 100 100 100 100 95 64 66 37 63 36 42
100 100 100 100 100 100 100 100 100 100 100 100 100 100 100 100 100 100 100 100 100 100 100 98 86 99 99 100 100 100 85 60 66 12 6 11 7 67
100 100 100 100 100 100 100 96 79 86 80 90 97 91 98 100 99 98 99 100 100 100 100 100 95 92 98 95 100 100 100 45 36 79 72 98 99 62
100 100 100 100 100 100 100 95 100 93 98 99 100 98 90 76 89 96 88 91 92 89 100 100 100 100 100 100 100 100 100 100 60 30 78 94 93 95
100 100 100 100 100 100 99 96 93 98 87 85 78 79 80 72 87 87 77 86 98 100 100 100 100 100 100 100 100 100 100 100 100 82 43 5 5 41

GFSNE_prec_cloud_075.txt.gz
Cloud_Cover
100 100 100 99 83 100 100 100 100 99 100 100 100 43 97 99 100 100 100 100 100 100 96 100 99 98 99 100 100 100 100 99 14 7 0 0 0 91
100 100 100 87 91 49 61 94 93 100 74 71 100 100 100 100 100 100 100 100 100 100 100 100 100 96 99 100 100 100 100 100 100 88 97 31 14 100
100 100 92 70 100 95 95 95 100 100 100 100 100 100 100 100 100 100 100 100 100 100 100 100 94 100 100 100 100 100 100 100 100 100 100 100 100 100
98 71 84 68 100 100 100 100 100 100 100 100 100 100 100 100 100 100 100 100 100 100 100 100 100 100 100 100 100 100 100 100 99 100 100 100 100 100
100 95 100 100 100 100 100 100 100 100 100 100 100 100 100 100 100 100 100 100 100 100 100 100 98 100 100 100 100 100 100 100 100 100 100 81 50 42
100 100 100 100 100 100 100 100 100 100 100 100 100 100 100 100 100 100 100 100 100 100 100 100 100 100 100 100 100 100 80 100 98 100 100 100 84 100
100 96 99 100 100 100 100 100 100 100 100 100 100 100 100 100 100 100 100 100 100 100 100 100 100 100 100 100 100 100 100 47 18 18 5 12 6 10
100 100 100 100 100 100 100 100 100 100 100 100 100 100 100 100 100 100 100 100 100 100 100 100 100 100 100 100 100 100 100 92 88 10 5 5 5 5
100 100 100 100 100 85 22 68 94 100 100 100 100 100 89 94 100 100 100 100 100 100 100 100 100 100 100 100 100 100 100 100 43 60 61 34 5 5
100 100 100 100 63 5 11 5 16 100 100 100 98 100 100 100 100 100 100 100 100 100 100 100 100 100 100 100 100 100 100 100 95 98 98 57 5 5
100 100 100 94 5 98 53 91 100 100 100 99 100 100 100 100 98 100 100 100 100 100 100 100 100 100 100 100 100 100 100 100 78 35 95 83 6 6
100 100 94 17 99 9 100 100 100 100 100 100 100 100 100 100 100 100 100 100 100 100 100 100 100 100 100 100 100 100 100 85 58 79 92 18 5 5
100 58 6 49 91 97 85 100 100 100 100 100 100 100 100 100 100 100 100 100 100 100 100 100 100 100 100 100 100 100 100 69 70 54 22 31 5 5
5 5 5 53 82 98 100 100 100 100 100 100 100 100 100 100 100 100 100 100 100 100 100 100 100 100 100 100 100 100 100 100 86 62 81 36 6 5
24 6 57 99 93 98 100 100 100 100 100 100 100 100 100 100 100 100 100 100 100 100 100 100 100 100 100 100 100 100 100 100 100 82 78 34 8 8
18 5 59 42 100 100 97 100 100 100 100 100 100 100 100 100 100 100 100 100 100 100 100 100 100 100 100 100 100 100 100 99 74 83 97 41 25 28
38 94 61 42 100 100 100 100 100 100 100 100 100 100 100 100 100 100 100 100 100 100 100 100 100 100 100 100 100 100 64 49 36 85 93 100 92 68
95 84 100 87 100 100 100 100 100 100 100 100 100 100 100 100 100 100 100 99 100 100 100 100 100 100 100 100 100 100 100 91 67 58 46 100 99 18
100 100 100 100 100 100 100 100 94 100 100 100 98 88 82 96 100 100 96 84 94 100 99 100 99 96 100 100 100 100 100 99 91 77 39 76 76 79
99 98 100 100 100 100 99 100 100 100 100 100 88 79 88 66 69 77 80 85 75 67 63 57 71 71 88 88 100 100 100 100 100 90 61 9 32 100
100 100 100 100 100 100 100 100 100 100 100 98 75 79 81 66 66 75 98 81 71 70 69 80 83 63 42 79 100 100 100 100 100 87 94 98 99 100
100 100 100 100 100 100 100 100 100 100 92 94 85 81 85 64 87 87 74 78 74 69 81 87 89 89 90 97 100 100 100 100 100 100 100 91 100 100
100 100 100 100 100 100 100 100 100 100 100 100 96 79 92 99 100 100 99 92 77 88 95 84 80 94 65 88 92 100 100 100 100 100 100 100 100 100

GFSNE_prec_cloud_078.txt.gz
Cloud_Cover
100 100 100 100 100 94 94 70 100 100 100 100 100 95 100 100 80 66 100 100 100 100 100 100 100 100 100 100 100 100 100 98 95 26 100 78 0 3
95 99 100 100 90 100 99 84 100 100 100 93 81 85 88 100 100 100 99 100 100 100 100 100 100 100 100 100 100 100 100 100 98 98 100 39 5 34
100 100 100 98 100 100 100 100 100 97 100 100 98 100 100 100 100 100 100 100 100 100 100 100 100 100 100 100 100 100 100 100 100 100 100 100 98 86
100 100 100 100 83 100 65 58 75 100 99 100 100 100 100 100 100 100 100 100 100 100 100 100 100 100 100 100 100 100 100 100 100 100 100 100 100 100
100 100 98 67 15 40 93 53 100 100 100 100 100 100 100 100 100 100 100 100 100 100 100 100 100 100 100 100 100 100 100 100 100 100 100 100 100 97
44 22 80 100 100 100 100 100 100 100 100 100 100 100 100 100 100 100 100 100 99 100 100 100 100 100 100 100 100 100 100 100 100 100 100 100 100 100
100 100 100 100 100 100 100 100 100 100 100 100 100 100 100 100 100 100 100 86 65 100 100 100 100 100 100 100 100 100 100 100 100 100 100 100 89 99
100 100 100 100 100 100 100 100 100 100 100 100 100 100 100 100 100 100 98 99 99 34 99 100 100 100 100 100 100 100 100 100 100 100 100 100 100 12
100 100 100 100 100 100 99 72 96 100 100 100 100 100 100 100 93 100 100 100 100 100 100 100 100 100 100 100 100 100 100 100 100 100 100 100 100 93
100 100 100 100 100 100 16 5 5 5 70 36 71 100 53 99 96 100 100 100 100 100 100 100 100 100 100 100 100 100 100 100 100 100 100 100 100 100
100 100 100 100 100 38 5 5 5 33 18 87 100 100 100 100 100 100 100 100 100 100 100 100 100 100 100 100 100 100 100 100 100 100 100 100 100 100
100 100 100 100 95 5 3 5 42 74 51 100 100 100 100 100 100 100 100 100 100 100 100 100 100 100 100 100 100 100 100 100 100 100 100 100 100 90
99 100 100 90 5 5 5 5 6 87 89 100 100 100 100 100 100 100 100 100 100 100 100 100 100 100 100 100 100 100 100 100 100 100 100 100 100 100
25 78 24 5 16 15 41 64 84 10 77 100 100 100 100 100 100 100 100 100 100 100 100 100 100 100 100 100 100 100 100 100 100 100 100 100 100 97
5 5 5 61 10 34 30 84 76 72 83 100 99 100 100 98 100 100 100 100 100 100 100 100 100 100 100 100 100 100 100 100 100 100 100 100 100 100
5 5 11 58 75 86 73 98 83 74 95 99 100 100 100 100 100 100 100 100 100 100 100 100 100 100 100 100 100 100 100 100 100 100 100 100 63 81
29 86 90 98 84 100 100 90 92 88 100 100 100 100 100 100 100 100 100 100 100 100 100 100 100 100 100 100 100 100 100 98 90 100 100 100 99 87
100 100 100 100 100 100 100 100 98 100 100 100 100 100 89 84 94 97 97 100 93 98 96 95 87 82 88 92 91 93 83 66 71 56 53 100 100 97
100 100 100 100 100 100 100 100 100 100 99 82 87 72 86 90 90 78 79 82 100 99 68 83 90 84 92 100 88 97 53 55 60 66 65 98 100 100
100 99 100 100 100 100 100 100 99 97 98 97 89 96 100 100 63 79 76 76 74 75 78 99 78 70 6 10 71 97 63 36 82 60 40 5 87 100
100 100 100 100 100 100 100 100 100 100 100 100 100 100 100 100 88 92 98 80 78 77 58 87 84 66 76 81 83 99 76 50 70 54 37 85 69 100
100 100 100 97 100 100 100 100 100 100 100 100 100 100 100 85 62 90 79 83 75 85 44 82 85 99 91 94 66 79 97 74 98 98 91 97 94 100
100 100 100 100 100 100 100 100 100 100 100 100 95 98 99 100 100 100 100 96 71 77 89 73 93 99 82 87 78 100 100 70 78 72 100 95 100 100

GFSNE_prec_cloud_081.txt.gz
Cloud_Cover
100 100 100 100 100 100 100 100 100 79 40 97 100 100 100 83 100 100 100 100 100 100 100 100 100 100 100 98 100 100 100 100 100 100 100 100 5 95
100 100 100 100 100 99 86 100 100 100 100 100 100 100 94 94 99 100 100 100 100 100 100 100 100 100 100 100 100 100 100 100 100 98 100 100 93 100
100 100 88 100 100 100 100 97 100 100 100 100 100 100 100 100 100 100 100 100 100 100 100 100 100 100 100 100 100 100 100 100 100 100 100 100 100 100
91 85 97 100 99 99 100 100 100 100 100 100 98 100 100 100 100 100 100 100 100 100 100 100 100 100 100 100 100 100 100 100 100 100 100 100 100 100
100 100 100 100 100 100 100 100 100 93 100 100 100 100 97 100 100 100 100 100 100 100 98 88 96 100 100 100 100 100 100 100 100 100 100 100 100 100
100 100 100 100 86 95 100 100 100 100 100 100 100 100 100 100 100 100 100 100 98 100 11 99 90 100 100 100 100 100 100 100 100 100 100 100 100 100
100 100 100 100 100 100 100 100 100 100 100 100 100 100 100 100 100 100 100 100 100 86 95 99 100 100 93 100 100 100 100 100 100 100 100 100 100 100
98 49 80 100 99 100 100 100 100 100 100 100 100 100 100 100 100 100 100 100 95 95 100 100 100 100 100 100 100 100 100 100 100 100 100 100 100 100
11 28 97 100 100 100 100 100 99 88 100 100 100 100 100 100 100 100 100 59 91 100 100 100 100 100 100 100 100 100 100 100 100 100 100 100 100 100
100 96 100 100 100 100 100 55 5 5 5 18 63 100 100 100 84 100 78 100 100 100 100 100 100 100 100 100 100 100 100 100 100 100 100 100 100 100
62 51 100 100 100 100 100 7 5 3 3 3 5 5 9 31 96 97 76 100 100 100 100 100 100 100 100 100 100 100 100 100 100 100 100 100 100 100
49 89 100 100 100 100 26 5 5 0 5 5 50 8 27 87 100 78 97 100 100 100 100 100 100 100 100 100 100 100 100 100 100 100 100 100 100 100
100 79 99 100 100 64 5 0 5 5 5 5 5 13 6 8 36 80 100 98 100 100 100 100 100 100 100 100 100 100 100 100 100 100 100 100 100 100
19 13 100 100 86 5 10 2 5 5 8 5 5 5 13 90 100 100 100 99 97 100 100 100 100 100 100 100 100 100 100 100 100 100 100 100 100 100
95 5 36 19 5 11 25 5 5 9 52 5 5 39 91 100 100 100 100 100 100 100 100 100 100 100 100 100 100 100 100 100 100 100 100 100 100 100
100 38 5 5 5 5 6 68 66 59 61 20 37 98 94 98 88 69 85 100 99 94 99 100 100 100 99 97 98 100 100 100 100 100 100 100 100 100
100 91 12 8 11 5 37 100 100 87 100 99 53 52 94 100 100 91 77 77 85 100 93 78 83 91 98 93 71 72 97 100 100 100 100 100 100 100
100 100 99 100 94 39 95 100 100 99 98 98 68 73 72 68 97 96 100 86 84 98 95 88 98 99 91 72 78 59 54 63 94 90 87 99 99 60
100 100 96 96 100 87 100 100 100 100 100 100 100 70 99 100 77 89 76 84 79 76 61 43 54 58 62 62 71 23 45 43 34 58 66 63 45 28
100 100 95 100 85 99 100 100 100 100 100 100 94 80 88 100 99 94 97 96 89 77 54 34 61 73 68 95 30 42 33 32 60 68 86 64 5 7
100 100 100 99 94 100 100 100 100 100 100 95 63 88 100 99 100 100 100 100 97 78 32 74 100 85 63 39 69 31 6 5 8 26 80 88 85 12
100 100 100 97 100 100 100 100 100 100 100 100 97 81 92 100 100 100 100 98 76 71 67 97 100 100 96 97 78 61 8 5 9 5 99 99 90 97
100 100 100 100 100 100 100 100 100 100 100 100 100 100 100 100 100 100 100 85 86 100 100 100 100 100 93 93 82 95 87 59 97 91 73 67 98 100

GFSNE_prec_cloud_084.txt.gz
Cloud_Cover
100 100 100 100 100 100 100 100 100 100 100 100 100 98 84 100 100 99 100 100 100 100 100 100 100 100 100 100 100 100 100 100 100 100 100 100 100 100
100 100 100 100 100 100 100 100 100 100 98 100 100 100 100 100 100 100 100 100 100 100 100 100 100 100 100 100 100 100 100 100 100 100 100 100 100 100
100 100 100 100 100 100 100 100 100 100 92 99 100 100 100 100 100 100 100 100 100 100 100 100 100 100 100 100 100 100 100 100 100 100 100 100 100 100
100 100 100 100 100 100 99 100 100 100 92 98 100 100 100 100 100 100 100 100 100 100 100 100 100 100 100 100 100 100 100 100 100 100 100 100 100 100
100 100 100 100 100 100 100 100 100 98 100 100 100 99 100 100 100 100 100 100 100 100 100 100 99 84 100 100 100 100 100 100 100 100 100 100 100 100
100 100 100 100 100 100 100 56 61 73 100 94 100 100 100 98 100 100 100 100 100 100 100 100 81 30 99 97 100 86 100 100 100 100 100 100 100 100
100 100 100 100 100 58 65 58 100 100 100 100 100 100 100 100 100 100 100 100 100 100 100 100 6 92 59 100 100 100 100 100 100 100 100 100 100 100
100 100 89 6 5 62 99 100 48 100 100 100 100 100 100 100 100 100 100 100 100 100 99 62 86 40 100 100 100 100 100 100 100 100 100 100 100 100
100 96 78 100 100 98 65 96 100 100 96 93 100 100 100 100 100 100 100 100 100 98 6 96 97 100 100 100 100 100 100 100 100 100 100 100 100 100
100 98 87 65 100 100 100 99 100 22 3 3 34 93 100 100 100 100 100 100 40 62 7 100 100 100 100 100 100 100 100 100 100 100 100 100 100 100
100 100 100 100 99 100 58 72 43 73 3 2 1 3 7 60 32 47 29 9 60 37 71 100 100 100 100 100 100 100 100 100 100 100 100 100 100 100
100 98 100 96 100 94 99 100 13 4 3 3 5 0 2 5 5 5 6 29 53 7 72 100 88 100 100 100 100 100 100 100 100 100 100 100 100 100
97 100 96 70 100 100 100 53 2 0 0 0 3 5 5 5 5 5 70 46 62 66 44 67 100 100 100 99 98 100 98 100 100 100 100 100 100 100
98 100 100 85 100 100 92 5 0 2 0 3 5 5 5 5 5 5 5 50 5 32 100 99 97 100 100 100 100 100 100 100 100 100 100 100 100 100
100 100 17 93 100 100 27 5 5 5 5 5 5 5 5 5 5 5 5 58 68 86 83 64 99 88 100 100 100 100 100 100 100 100 100 100 100 100
100 98 88 47 98 37 21 67 6 5 5 11 77 32 17 8 5 5 63 87 97 80 79 70 69 66 64 52 68 100 100 100 100 100 100 94 84 98
100 82 100 58 22 22 13 38 36 7 23 84 100 96 95 100 27 28 33 67 79 44 38 34 51 88 97 87 73 86 84 82 97 92 97 99 88 75
100 100 100 100 65 100 78 89 81 30 81 99 100 100 100 100 75 28 67 73 63 60 47 57 58 38 45 82 26 25 23 54 61 53 50 42 40 54
100 100 100 100 100 100 87 100 100 74 90 100 100 100 100 100 72 81 96 49 75 33 11 15 38 63 41 18 27 9 18 65 56 44 66 80 80 11
100 100 100 100 100 95 99 99 77 88 100 95 100 100 100 100 100 93 100 77 52 19 58 72 48 19 5 5 5 6 15 15 51 52 70 59 21 6
100 100 100 100 100 97 100 100 80 100 100 99 100 100 100 100 100 100 99 68 74 71 87 100 100 59 41 47 32 37 29 5 9 50 100 96 73 11
100 100 100 100 100 100 100 100 100 100 100 100 99 100 100 100 100 100 91 93 95 98 88 97 88 62 79 96 100 100 86 85 46 5 78 97 100 95
100 100 100 100 100 100 100 100 100 100 100 100 100 100 100 100 100 100 100 100 100 100 100 62 62 99 100 100 100 96 100 89 89 90 88 89 86 100

GFSNE_prec_cloud_087.txt.gz
Cloud_Cover
100 100 100 100 100 100 100 100 100 100 100 100 100 100 100 100 100 100 100 100 100 100 100 100 100 96 62 100 100 100 100 100 100 100 100 100 100 100
100 100 100 100 100 100 100 100 100 100 100 100 100 100 99 100 100 98 95 89 100 100 100 100 100 99 100 74 95 100 96 97 100 100 100 100 100 100
100 100 100 100 100 100 100 100 100 100 100 100 100 95 46 100 98 100 100 100 100 100 92 99 100 100 100 100 95 100 100 100 100 100 100 100 100 100
100 100 100 100 100 100 100 100 100 100 100 100 99 100 100 100 95 100 100 100 100 100 100 100 100 100 100 43 98 89 90 100 100 100 100 100 100 100
100 100 100 100 100 100 100 100 100 100 100 99 100 100 100 100 100 100 100 100 92 100 100 100 100 100 100 19 88 4 5 85 100 100 100 100 100 100
100 100 100 100 100 100 100 100 100 100 100 100 90 100 93 98 89 98 98 100 100 100 100 100 100 100 95 65 26 5 86 100 97 100 100 100 100 100
100 100 100 100 100 100 100 100 100 89 100 100 100 100 100 100 100 100 100 100 100 100 100 100 99 100 23 5 62 11 100 91 97 100 100 100 100 100
100 100 100 100 100 100 100 100 100 100 100 100 100 100 100 100 100 100 100 100 100 100 100 100 97 27 4 48 67 98 100 100 100 100 100 100 100 100
100 100 100 100 100 100 100 97 100 94 100 100 100 100 100 100 100 100 100 100 100 100 100 100 4 73 34 69 100 100 100 100 100 100 100 100 100 100
100 100 100 100 100 100 100 100 100 100 100 100 100 100 100 100 100 100 100 100 100 100 90 11 5 5 84 54 90 97 100 100 100 100 100 100 100 100
100 100 100 100 100 100 100 100 100 100 100 58 23 75 56 59 98 96 99 68 57 5 5 5 5 5 79 42 99 79 74 100 100 100 100 100 100 100
100 100 100 100 99 100 83 100 100 97 74 82 33 78 36 37 18 29 64 20 6 5 5 5 5 5 51 52 99 88 100 99 100 100 100 100 100 100
100 100 100 100 90 100 100 100 100 100 95 98 98 94 90 21 2 2 4 26 18 5 5 17 6 5 14 26 31 99 98 98 75 92 100 100 100 100
100 100 100 100 100 100 100 100 100 100 99 46 33 18 52 8 3 5 2 5 5 51 5 88 63 5 8 62 100 100 100 100 100 98 95 100 100 100
100 100 100 100 100 100 100 100 97 100 85 49 5 2 2 4 5 5 5 5 5 5 5 22 48 77 26 33 41 62 98 94 100 98 100 100 100 100
100 100 100 100 100 100 100 100 100 36 5 5 5 5 5 5 14 38 67 5 5 5 6 20 5 5 5 5 6 16 39 43 95 98 100 99 98 100
100 100 100 100 100 100 100 96 99 29 5 5 5 5 5 5 80 100 100 66 6 7 13 35 18 5 29 12 35 60 20 52 61 68 93 96 87 85
100 100 100 100 100 100 100 100 100 86 79 54 5 31 65 83 74 100 100 100 94 49 5 5 24 58 10 11 30 17 36 73 68 41 19 26 39 33
100 100 100 100 100 100 100 100 100 100 87 67 100 64 99 95 72 90 100 100 100 92 26 59 71 29 6 25 20 25 10 7 16 12 23 38 8 24
100 100 100 100 100 100 100 100 100 100 84 100 100 100 100 100 100 75 99 100 100 100 96 66 57 7 5 5 6 46 79 29 32 42 51 80 45 6
100 100 100 100 100 100 100 100 100 93 96 100 100 100 100 100 94 56 99 100 100 100 95 99 43 7 12 5 30 76 64 82 76 99 100 100 99 73
100 100 100 100 100 100 100 100 99 86 100 100 100 100 99 96 93 95 100 100 100 100 100 100 76 47 44 84 46 68 52 12 32 100 100 87 93 70
100 100 100 100 100 100 100 100 93 91 100 100 100 100 100 100 98 100 100 100 100 100 67 71 94 79 96 65 64 53 22 86 100 84 100 100 75 74

GFSNE_prec_cloud_093.txt.gz
Cloud_Cover
100 100 100 100 100 100 100 100 100 100 100 100 100 100 86 98 84 99 64 99 100 100 100 100 100 100 100 100 100 100 100 100 100 100 100 100 100 96
100 100 100 100 100 100 100 100 100 94 97 100 100 100 100 100 100 99 100 100 100 100 97 71 32 100 100 98 100 100 100 100 100 95 100 100 100 100
100 100 100 100 100 100 100 100 100 100 100 100 100 100 100 100 100 100 100 100 100 100 100 95 99 92 100 100 100 100 100 100 100 100 100 100 100 99
100 100 100 100 100 100 100 100 100 100 100 100 100 100 100 100 100 100 100 93 93 100 100 89 100 91 100 100 100 100 100 100 97 99 100 54 77 100
100 100 100 100 100 100 100 100 100 100 100 100 100 100 100 100 100 100 100 100 100 100 100 100 100 100 100 100 100 100 27 5 1 2 17 1 26 100
100 100 100 100 100 100 100 100 100 98 100 100 100 100 100 100 100 96 95 98 100 100 79 68 100 100 100 100 100 87 32 90 1 0 0 3 17 73
100 100 100 100 100 100 100 100 100 100 100 100 100 100 100 100 100 100 100 100 98 100 100 100 100 100 100 100 100 99 83 24 0 0 0 0 5 93
100 100 100 100 100 100 100 100 100 100 100 100 100 100 100 100 100 100 100 100 100 100 100 100 100 100 100 100 100 86 98 20 0 0 0 5 5 43
100 100 100 100 100 100 100 100 100 100 100 100 100 100 100 100 100 100 100 100 100 100 100 100 100 100 100 97 83 28 89 2 1 5 5 5 70 93
100 100 100 100 100 100 100 100 100 100 100 100 100 100 100 100 100 100 100 100 100 100 99 100 100 100 94 23 100 100 66 1 4 8 5 12 21 35
78 100 100 100 100 100 100 100 100 100 100 100 100 100 100 100 100 100 100 100 100 100 100 100 100 100 17 82 95 4 5 5 5 19 100 77 30 16
98 100 100 100 100 100 100 100 100 100 100 100 100 100 99 100 100 100 100 100 100 100 100 100 100 100 99 5 5 5 5 5 20 27 14 5 5 59
100 100 100 100 100 100 100 100 100 100 100 100 100 100 100 100 100 100 100 100 100 100 100 100 100 94 18 5 5 5 5 5 5 5 5 65 5 9
100 100 100 100 100 100 100 100 100 100 100 100 100 100 100 100 100 100 100 100 100 100 100 100 100 55 49 60 5 5 5 5 39 5 18 7 29 33
100 100 100 100 100 100 100 100 100 100 100 100 100 100 100 100 100 100 100 100 100 100 100 99 83 82 45 41 6 5 5 9 54 5 18 6 5 18
100 100 100 100 100 100 100 100 100 100 100 100 100 100 100 100 100 100 100 99 100 100 98 98 85 5 86 68 100 63 52 10 22 36 76 20 5 5
100 100 100 100 100 100 100 100 100 100 100 100 100 100 100 100 100 100 100 100 100 100 100 56 13 7 42 31 85 78 81 56 11 8 6 25 14 6
100 100 100 100 100 100 100 100 100 100 100 100 100 100 100 100 76 100 100 100 100 100 100 69 46 27 60 50 83 95 85 12 44 39 37 65 16 7
100 100 100 100 100 100 100 100 100 100 100 100 100 100 100 100 100 100 100 100 100 100 100 36 85 78 66 78 96 100 68 100 100 81 18 11 57 6
100 100 100 100 100 100 100 100 100 100 100 100 100 100 100 100 100 100 100 100 100 100 100 97 100 100 88 94 100 100 100 100 100 100 62 26 50 51
100 100 100 100 100 100 100 100 100 100 100 100 100 100 100 100 100 100 100 100 100 100 79 99 98 100 89 61 100 100 100 100 100 100 64 43 55 48
100 100 100 100 100 100 100 100 100 100 100 100 100 100 100 100 100 100 100 100 100 100 98 86 100 100 99 93 100 100 100 100 100 100 66 30 17 82
100 100 100 100 100 100 100 100 100 100 100 100 100 100 100 100 100 100 100 100 100 100 91 89 100 100 100 100 100 100 100 100 100 95 80 22 8 5

GFSNE_prec_cloud_096.txt.gz
Cloud_Cover
100 100 100 100 100 100 100 100 100 100 100 100 100 98 95 90 90 83 80 90 99 100 100 100 100 100 100 100 100 100 84 81 100 100 100 100 100 100
100 100 100 100 100 100 100 100 100 100 100 100 100 100 99 100 100 100 77 100 82 100 100 100 100 99 37 100 100 100 83 68 100 100 100 100 100 95
100 100 100 100 100 100 100 100 100 100 100 100 100 100 100 100 100 100 100 100 100 100 100 100 90 93 100 80 100 83 76 100 100 100 100 100 100 100
100 100 100 100 100 100 100 100 100 100 100 100 100 100 100 100 100 100 100 100 100 100 100 100 87 100 95 100 65 98 100 100 100 100 100 62 34 95
100 100 100 100 100 100 100 100 100 100 100 100 100 100 100 100 100 100 100 100 100 100 100 100 88 100 99 72 78 100 100 100 100 100 100 12 2 17
100 100 100 100 100 100 100 100 100 100 100 100 100 100 100 100 100 99 100 100 96 100 100 100 99 97 100 100 100 100 42 100 100 93 100 5 1 3
100 100 100 100 100 100 100 100 100 100 100 100 100 100 100 100 100 100 100 93 100 100 100 95 100 100 100 100 98 100 99 97 100 100 76 4 0 1
100 100 100 100 100 100 100 100 100 100 100 100 100 100 100 99 100 100 100 100 100 100 100 60 100 100 100 100 100 100 100 100 91 100 100 5 0 0
100 100 100 100 100 100 100 100 100 100 100 100 100 100 100 100 100 100 100 100 100 100 100 100 100 100 100 100 100 100 100 100 100 100 90 6 0 8
100 100 100 100 100 100 100 100 100 100 100 100 100 100 100 100 100 100 100 100 100 100 100 100 100 100 100 100 100 100 100 100 100 100 38 34 60 17
100 100 100 100 100 100 100 100 100 100 100 100 100 100 100 100 100 100 100 100 100 100 100 100 100 100 100 100 100 100 100 100 100 82 90 82 5 0
100 100 100 100 100 100 100 100 100 100 100 100 100 100 100 100 100 100 100 100 100 100 100 100 100 100 100 100 100 100 100 100 83 16 81 5 4 0
100 100 100 100 100 100 100 100 100 100 100 100 100 100 100 100 100 100 100 100 100 100 100 100 100 100 100 100 100 100 100 100 39 39 5 11 5 4
100 100 100 100 100 100 100 100 100 100 100 100 100 100 100 100 100 100 100 100 100 100 100 100 100 100 100 100 99 100 69 12 5 5 5 5 5 5
100 100 100 100 100 100 100 100 100 100 100 100 100 100 100 100 100 100 100 100 100 100 100 100 100 100 100 100 100 88 5 5 21 7 22 7 5 18
100 100 100 100 100 100 100 100 100 100 100 100 100 100 100 100 100 100 100 100 100 100 100 100 76 100 100 100 100 58 62 32 84 83 21 24 9 5
100 100 100 100 100 100 100 100 100 100 100 100 100 100 100 100 94 87 48 88 100 100 100 100 97 100 100 100 96 5 55 100 100 98 67 61 28 6
100 100 100 100 100 100 100 100 100 100 100 100 100 100 100 100 98 63 100 100 100 100 100 100 100 100 100 100 25 19 61 100 100 100 97 48 18 13
100 100 100 100 100 100 100 100 100 100 100 100 100 100 100 100 72 98 100 100 100 99 100 100 100 100 100 100 77 69 99 100 100 100 94 81 82 80
100 100 100 100 100 100 100 100 100 100 100 100 100 100 100 100 100 100 100 100 100 95 100 100 100 100 100 100 100 95 100 100 100 100 100 100 100 99
100 100 100 100 100 100 100 100 100 100 100 100 100 100 100 100 100 100 100 100 98 92 100 100 100 100 100 100 100 100 100 100 100 100 100 100 100 100
100 100 100 100 100 100 100 100 100 100 100 100 100 100 100 100 100 100 100 100 100 100 100 100 100 100 100 100 100 100 100 100 100 100 100 100 100 100
100 100 100 100 100 100 100 100 100 100 100 100 100 100 100 100 100 100 100 100 100 100 100 100 100 100 100 100 100 100 100 100 100 100 100 100 100 100

GFSNE_prec_cloud_102.txt.gz
Cloud_Cover
100 100 100 100 100 100 100 100 100 100 100 100 100 100 100 100 100 100 100 100 100 100 100 100 100 100 100 94 73 100 78 98 100 100 98 92 100 100
100 100 100 100 100 100 100 100 100 100 100 100 100 100 98 89 100 100 100 100 100 100 100 100 100 100 100 100 99 97 100 100 100 100 100 99 94 84
100 100 100 100 100 100 100 100 100 100 100 100 100 100 100 100 100 100 100 100 100 100 100 100 100 100 97 100 100 100 100 100 100 100 93 100 72 65
100 100 100 100 100 100 100 100 100 100 100 100 100 100 100 100 100 100 100 100 100 100 100 100 100 100 100 100 100 100 100 100 37 74 100 34 5 5
100 100 100 100 100 100 100 100 100 100 100 100 100 100 100 100 100 100 100 100 100 100 100 100 100 100 100 100 100 100 100 100 100 92 93 9 70 100
100 100 100 100 100 100 100 100 100 100 100 100 100 100 100 100 100 100 100 100 100 100 100 100 100 100 100 100 100 100 82 97 100 10 95 82 100 42
100 100 100 100 100 100 100 100 100 100 100 100 100 100 100 100 100 100 100 100 100 100 100 100 100 100 100 100 100 100 100 92 98 95 96 100 100 100
100 100 100 100 100 100 100 100 100 100 100 100 100 100 100 100 100 100 100 100 100 100 100 100 100 100 100 100 100 100 81 25 100 100 100 100 100 100
100 100 100 100 100 100 100 100 100 100 100 100 100 100 100 100 100 100 100 100 100 100 100 100 100 100 100 100 98 82 87 100 100 100 100 100 100 100
100 100 100 100 100 100 100 100 100 100 100 100 100 100 100 100 100 100 100 100 100 100 100 100 100 100 100 100 100 100 100 100 100 100 100 100 100 100
100 100 100 100 100 100 100 100 100 100 100 100 100 100 100 100 100 100 100 100 100 100 100 100 100 100 100 100 100 100 100 100 100 100 100 100 100 100
100 100 100 100 100 100 100 100 100 100 100 100 100 100 100 100 100 100 100 100 100 100 100 100 100 100 100 100 100 100 100 100 100 99 98 100 100 100
21 38 35 100 100 100 100 100 97 100 100 100 100 100 100 100 100 100 100 100 100 100 100 100 100 100 100 100 100 100 100 100 100 100 100 100 100 100
100 98 73 94 100 100 100 100 100 100 100 100 100 100 100 100 100 100 100 100 100 100 100 100 100 100 100 100 100 100 100 100 84 92 100 100 100 100
100 100 100 58 42 100 100 100 100 100 100 100 100 100 100 100 100 100 100 100 100 100 100 100 100 100 100 100 100 100 100 100 100 100 100 99 73 85
100 100 100 88 12 22 100 100 100 100 100 100 100 100 100 100 100 100 100 100 100 100 100 100 97 86 100 100 100 100 100 73 81 68 64 43 35 13
100 100 100 100 100 74 100 100 100 100 100 100 100 100 100 100 100 100 100 100 100 100 100 100 100 100 100 99 100 100 11 81 78 36 46 28 67 20
100 100 100 100 100 100 100 100 100 100 100 100 100 100 100 100 100 100 100 100 100 100 100 100 95 92 100 100 72 51 48 57 72 13 5 34 98 29
97 96 100 100 100 100 100 100 100 100 100 100 100 100 100 100 100 100 100 100 100 100 100 100 99 100 100 96 85 20 63 51 25 100 7 100 100 93
100 100 100 100 98 81 100 100 100 100 100 100 100 100 100 100 100 100 100 100 100 100 100 100 100 100 100 86 19 29 80 14 97 44 88 99 99 100
100 100 100 100 95 46 100 100 100 100 100 100 100 100 100 100 100 100 100 100 100 100 90 99 100 100 90 81 100 100 100 99 95 76 74 98 100 100
100 99 59 97 95 95 100 100 100 100 100 100 100 100 100 100 100 100 100 100 100 100 100 100 100 100 100 100 100 100 100 90 95 100 100 100 100 100
70 83 100 100 17 50 100 100 100 100 100 100 100 100 100 100 100 100 100 100 100 100 100 100 100 100 100 100 100 100 100 100 100 100 100 100 100 100

GFSNE_prec_cloud_105.txt.gz
Cloud_Cover
100 100 100 100 100 100 100 100 100 100 100 100 100 100 100 100 100 100 100 100 100 100 100 100 100 100 100 100 100 100 100 96 100 100 54 100 100 100
100 100 100 100 100 100 100 100 100 100 100 100 100 100 100 100 100 100 100 100 100 100 100 100 100 100 100 100 100 100 100 100 100 86 100 100 100 100
100 100 100 100 100 100 100 100 100 100 100 100 100 100 100 100 100 100 100 100 100 100 100 100 100 100 100 100 100 100 100 100 100 100 100 100 99 96
100 100 100 100 100 100 100 100 100 100 100 100 100 100 100 100 100 100 100 100 100 100 100 100 100 100 100 100 100 100 100 100 100 100 100 91 100 100
100 100 100 100 100 100 100 100 100 100 100 100 100 100 100 100 100 100 100 100 100 100 100 100 100 100 100 100 100 100 100 100 100 100 96 80 26 66
100 100 100 100 100 100 100 100 100 100 100 100 100 100 100 100 100 100 100 100 100 100 100 100 100 100 95 100 100 99 100 92 100 100 76 98 95 44
100 100 100 100 100 100 100 100 100 100 100 100 100 100 100 100 100 100 100 100 100 100 100 100 100 100 100 100 100 100 100 98 81 99 50 92 94 50
100 100 100 100 100 100 100 100 100 100 100 100 100 100 100 100 100 100 100 100 100 100 100 100 100 100 100 100 100 100 100 79 96 71 14 100 77 67
100 100 100 100 100 100 100 100 100 100 100 100 100 100 100 100 100 100 100 100 100 100 100 100 100 100 100 100 100 100 100 100 47 18 96 43 95 100
67 100 100 100 100 100 100 100 100 100 100 100 100 100 100 100 100 100 100 100 100 100 100 100 100 100 100 100 100 100 100 100 50 35 94 100 100 100
11 78 97 81 96 100 100 100 100 100 100 100 100 100 100 100 100 100 100 100 100 100 100 100 100 100 100 100 100 100 100 100 100 97 100 100 100 100
22 5 5 10 18 100 100 100 100 100 100 100 100 100 100 100 100 100 100 100 100 100 100 100 100 100 100 100 100 100 100 100 100 100 100 100 78 100
55 29 17 9 38 100 88 92 100 100 100 100 100 100 100 100 100 100 100 100 100 100 100 100 100 100 100 100 100 100 100 100 100 100 100 100 100 100
100 100 100 100 100 100 100 69 62 98 100 100 100 100 100 100 100 100 100 100 100 100 100 100 100 100 100 100 100 100 100 100 100 100 100 100 100 100
100 100 100 100 100 100 100 76 24 90 100 100 100 100 100 100 100 100 100 100 100 100 100 100 100 100 100 100 100 100 100 100 100 100 100 100 100 100
96 92 87 99 94 92 95 37 66 100 100 100 100 100 100 100 100 100 100 100 100 100 100 100 100 100 100 100 100 100 100 100 100 100 100 100 100 100
100 60 50 67 12 91 98 100 100 100 100 100 100 100 100 100 100 100 100 100 100 100 100 100 100 100 100 95 99 100 100 100 100 100 100 100 100 100
94 83 7 5 5 98 100 100 94 100 100 100 100 100 100 100 100 100 100 100 100 100 100 100 100 100 97 98 100 100 100 100 100 100 100 100 100 90
96 6 5 5 56 100 98 99 94 100 100 100 100 100 100 100 100 100 100 100 100 100 100 100 100 100 100 100 100 100 100 100 100 100 100 100 95 61
92 54 5 5 81 100 100 55 97 96 100 100 100 100 100 100 100 100 100 100 100 100 100 100 100 100 100 100 100 96 100 100 100 83 58 79 81 78
99 79 11 82 100 100 99 24 99 100 100 100 100 100 100 100 100 100 100 100 100 100 100 100 100 100 100 100 100 89 100 90 100 100 100 100 100 96
94 78 66 84 100 100 48 65 76 100 100 100 100 100 100 100 100 100 100 100 100 100 100 100 100 100 100 100 100 100 100 100 98 98 93 99 100 100
100 82 94 95 100 76 51 97 89 100 100 100 100 100 100 100 100 100 100 100 100 100 100 100 100 100 100 100 100 100 100 100 96 100 95 100 100 100

GFSNE_prec_cloud_108.txt.gz
Cloud_Cover
100 100 100 100 100 100 100 100 100 100 100 100 100 100 100 100 100 100 100 100 100 100 100 100 100 100 100 100 100 100 100 100 100 100 100 100 100 100
100 100 100 100 100 100 100 100 100 100 100 100 100 100 100 100 100 100 100 100 100 100 100 100 100 100 100 100 100 100 100 100 100 100 100 100 100 100
100 100 100 100 100 100 100 100 100 100 100 100 100 100 100 100 100 100 100 100 100 100 100 100 100 100 100 100 100 100 100 100 100 100 100 100 100 100
100 100 100 100 100 100 100 100 100 100 100 100 100 100 100 100 100 100 100 100 100 100 100 100 100 100 100 100 100 100 100 100 100 100 100 100 100 100
100 100 100 100 100 100 100 100 100 100 100 100 100 100 100 100 100 100 100 100 100 100 100 100 100 100 100 100 100 100 99 100 100 100 100 100 100 99
100 100 100 100 100 100 100 100 100 100 100 100 100 100 100 100 100 100 100 100 100 100 100 100 100 100 100 100 100 84 94 100 98 95 100 100 98 89
100 100 91 100 100 100 100 100 100 100 100 100 100 100 100 100 100 100 100 100 100 100 100 100 100 100 100 100 100 100 100 100 100 100 100 60 100 100
100 100 100 100 100 100 97 100 100 100 100 100 100 100 100 100 100 100 100 100 100 100 100 100 100 100 100 100 100 100 100 100 87 38 100 100 74 100
100 100 100 100 100 100 100 100 100 100 100 100 100 100 100 100 100 100 100 100 100 100 100 100 100 100 100 100 100 100 100 100 94 90 75 35 95 100
41 93 52 36 61 80 42 80 100 100 100 100 100 100 100 100 100 100 100 100 100 100 100 100 100 100 100 100 100 100 100 100 100 84 42 83 86 63
18 16 61 97 14 39 19 88 100 100 100 100 100 100 100 100 100 100 100 100 100 100 100 100 100 100 100 100 100 100 100 100 100 100 100 68 37 96
5 44 49 7 63 19 15 15 31 14 9 60 100 100 100 100 100 100 100 100 100 100 100 100 100 100 100 100 100 100 100 100 100 100 100 85 100 100
5 5 5 66 66 90 100 100 100 100 99 5 21 64 89 100 100 100 100 100 100 100 100 100 100 100 100 100 100 100 100 100 100 100 100 100 100 100
73 62 61 47 89 52 56 64 80 94 99 8 8 92 100 100 100 100 100 100 100 100 100 100 100 100 100 100 100 100 100 100 100 100 100 100 100 100
71 39 20 54 68 62 66 64 65 73 74 96 42 99 100 100 83 100 100 100 100 100 100 100 100 100 100 100 100 100 100 100 100 100 100 100 100 100
93 45 9 96 62 86 14 39 75 95 88 76 100 100 100 100 100 100 100 100 100 100 100 100 100 100 100 100 100 100 100 100 100 100 100 100 100 100
94 28 52 98 95 18 27 68 82 91 90 91 100 100 100 100 100 100 100 100 100 100 100 100 100 100 100 100 100 100 100 100 100 100 100 100 100 100
91 54 99 100 99 69 69 67 79 96 70 32 100 100 100 100 100 100 100 100 100 100 100 100 100 100 100 100 100 100 100 100 100 100 100 100 100 100
99 98 98 100 100 34 46 95 98 90 6 98 100 100 100 100 100 100 100 100 100 100 100 100 100 100 100 100 100 100 100 100 100 100 100 100 100 100
100 98 100 95 81 50 29 90 100 94 6 98 100 100 100 100 100 100 100 100 100 100 100 100 100 100 100 100 100 100 100 100 100 100 100 100 100 100
100 98 98 74 78 84 79 86 98 96 87 85 100 100 100 100 100 100 100 100 100 100 100 100 100 100 100 100 100 100 100 100 100 98 100 100 95 100
100 100 100 100 96 91 90 100 100 100 95 98 83 100 100 100 100 100 100 100 100 100 100 100 100 100 100 100 100 100 100 100 100 100 100 92 99 100
100 100 100 100 100 100 100 100 100 100 100 100 98 100 100 100 100 100 100 100 100 100 100 100 100 100 100 100 100 100 100 100 100 100 100 100 100 100

GFSNE_prec_cloud_111.txt.gz
Cloud_Cover
100 100 100 100 100 100 100 100 100 100 100 98 100 100 100 100 100 100 100 100 100 100 100 100 100 100 100 100 100 100 100 100 100 100 100 100 100 100
100 100 100 100 100 95 100 100 100 100 100 100 100 100 100 100 100 100 100 100 89 100 100 100 100 100 100 100 100 100 100 100 100 100 100 100 100 100
100 100 100 100 100 100 100 100 100 100 100 100 100 100 100 100 100 100 100 100 100 100 100 100 100 100 100 100 100 100 100 100 100 100 100 100 100 100
100 100 100 100 100 100 100 100 100 100 100 100 100 100 100 100 100 100 100 100 100 100 100 100 100 100 100 100 100 100 100 100 100 100 100 100 100 100
100 100 100 100 100 100 100 100 100 100 100 100 100 100 100 100 100 100 100 100 100 100 100 100 100 100 100 100 100 100 100 100 100 100 100 100 94 100
100 100 100 100 100 100 100 100 100 100 100 100 100 100 100 100 100 100 100 100 100 100 100 100 100 100 100 100 100 100 100 100 100 100 100 100 100 100
100 100 100 100 100 100 100 100 100 100 100 100 100 100 100 100 100 100 100 100 100 100 100 100 100 100 100 100 100 100 100 100 100 100 100 100 100 100
100 100 100 100 100 100 100 100 100 100 100 100 100 100 100 100 100 100 100 100 100 100 100 100 100 100 100 100 100 100 100 100 100 100 100 100 100 100
96 88 100 100 100 100 100 100 100 100 99 100 100 100 100 100 100 100 100 100 100 100 100 100 100 100 100 100 100 100 100 100 100 100 100 100 100 100
68 98 100 93 79 100 100 100 100 100 100 100 100 100 100 100 100 100 100 100 100 100 100 100 100 100 100 100 100 100 100 100 100 100 100 100 100 100
25 7 21 10 42 99 99 100 100 83 93 99 100 100 100 100 100 100 100 100 100 100 100 100 100 100 100 100 100 100 100 100 100 100 100 100 100 99
5 5 15 58 81 87 38 96 100 39 9 8 20 42 96 100 100 100 100 100 100 100 100 100 100 100 100 100 100 100 100 100 100 100 100 100 100 100
5 5 5 74 50 74 88 76 47 59 46 54 5 5 5 5 5 39 44 88 100 100 100 100 100 100 100 100 100 100 100 100 100 100 100 100 100 100
31 5 5 5 5 82 91 80 78 67 5 5 60 69 53 12 28 91 100 100 89 100 100 100 100 100 100 100 100 100 100 100 100 100 100 100 100 100
6 57 91 78 24 16 5 5 5 5 5 8 6 6 14 83 100 95 89 100 100 100 100 100 100 100 100 100 100 100 100 100 100 100 100 100 100 100
96 99 57 70 40 5 28 6 5 5 96 99 71 87 28 100 100 100 100 100 100 100 100 100 100 100 100 100 100 100 100 100 100 100 100 100 100 100
100 96 58 16 40 64 19 5 5 6 7 90 80 8 58 82 100 100 100 100 100 100 100 100 100 100 100 100 100 100 100 100 100 100 100 100 100 100
100 42 5 5 66 48 5 5 5 20 67 80 18 27 100 100 100 100 100 100 100 100 100 100 100 100 100 100 100 100 100 100 100 100 100 100 100 100
100 100 100 100 99 89 75 5 17 61 70 84 96 64 85 100 100 100 100 100 100 100 100 100 100 100 100 100 100 100 100 100 100 100 100 100 100 100
100 100 100 100 100 87 53 99 100 95 99 79 89 98 88 100 100 100 100 100 100 100 100 100 100 100 100 100 100 100 100 100 100 100 100 100 100 99
100 100 99 92 96 100 100 100 100 100 100 100 100 100 100 100 100 100 100 100 100 100 100 100 100 100 100 100 100 100 100 100 100 100 100 100 90 96
100 100 100 100 100 100 100 100 100 100 100 100 100 100 100 100 100 100 100 100 100 100 100 100 100 100 100 100 100 100 100 100 100 100 100 100 100 100
100 99 100 100 100 100 100 100 97 98 98 100 100 100 100 86 100 100 100 100 100 100 100 100 100 100 100 100 100 100 100 100 100 100 100 100 100 100

GFSNE_prec_cloud_114.txt.gz
Cloud_Cover
99 100 100 100 100 100 100 100 100 100 100 100 100 41 6 43 100 96 100 100 100 99 100 100 100 100 100 100 100 100 100 100 100 100 100 100 100 100
96 100 100 100 100 100 100 100 100 100 100 100 100 100 90 93 100 100 100 100 100 100 100 100 100 100 99 100 100 100 100 100 100 100 100 100 100 100
100 100 90 100 100 100 100 100 100 100 100 100 90 100 100 100 100 100 100 100 100 100 100 100 100 100 100 100 100 100 100 100 100 100 100 100 100 100
100 100 100 100 100 100 100 100 100 100 100 100 100 100 100 100 100 100 100 100 100 100 100 100 100 100 100 100 100 100 100 100 100 100 100 100 100 100
100 100 100 100 100 100 100 100 100 100 100 100 100 100 100 100 100 100 100 100 100 100 100 100 100 100 100 100 100 100 100 100 100 100 100 100 100 100
100 100 100 100 100 100 100 100 100 100 100 100 100 100 100 100 100 100 100 100 100 100 100 100 100 100 100 100 100 100 100 100 100 100 100 100 100 100
100 100 100 100 100 100 100 100 100 100 100 100 100 100 100 100 100 100 100 100 100 100 100 100 100 100 100 100 100 100 100 100 100 100 100 100 100 100
100 100 100 100 100 100 100 100 100 100 100 100 100 100 100 100 100 100 100 100 100 100 100 100 100 100 100 100 100 100 100 100 100 100 100 100 100 100
100 100 100 100 100 100 100 59 100 100 100 100 100 100 100 100 100 100 100 100 100 100 100 100 100 100 100 100 100 100 100 100 100 100 100 100 100 100
100 97 100 100 100 100 100 100 41 100 100 100 100 100 98 100 100 100 100 88 100 100 100 100 100 100 100 100 100 100 100 100 100 100 100 100 100 100
99 100 99 80 87 8 39 92 100 100 100 100 100 100 100 100 100 100 100 100 100 100 100 100 100 100 100 100 100 100 100 100 100 100 100 100 100 100
100 52 9 20 79 92 100 88 48 7 21 85 97 91 99 100 100 100 39 89 100 100 100 100 100 100 100 100 100 100 100 100 100 100 100 100 100 100
100 100 88 82 80 77 78 79 67 100 85 5 5 5 12 5 5 98 98 65 98 100 100 100 100 100 100 100 100 100 100 100 100 100 100 100 100 100
90 48 62 69 65 89 50 5 12 96 29 5 5 5 5 5 5 5 19 88 42 43 100 100 100 100 100 100 100 100 100 100 100 100 100 100 100 100
94 89 84 66 66 64 5 5 27 22 5 5 5 5 5 5 5 5 5 19 100 100 58 46 100 100 100 100 100 100 100 100 100 100 100 100 100 100
12 16 34 50 62 5 5 4 5 5 5 5 5 5 5 5 16 99 100 100 100 100 100 26 98 100 100 100 100 100 100 100 100 100 100 100 100 100
100 84 56 5 5 5 5 5 5 5 5 5 5 5 5 5 5 15 93 98 100 100 100 100 100 100 100 100 100 100 100 100 100 100 100 100 100 100
100 98 75 68 5 20 75 93 5 5 5 5 5 10 52 22 30 43 86 87 96 100 100 100 100 100 100 100 100 100 100 100 100 100 100 100 100 100
73 77 97 51 17 60 98 77 43 5 5 12 6 93 80 80 95 61 66 100 92 100 100 100 100 100 100 100 100 100 100 100 100 100 100 100 100 100
8 23 30 38 46 72 26 5 5 6 60 12 15 88 100 100 96 99 98 100 100 100 100 100 100 100 100 100 100 100 100 100 100 100 100 100 100 100
80 51 5 5 17 27 41 62 100 94 97 100 99 100 100 100 96 99 97 100 100 100 100 100 100 100 100 100 100 100 100 100 100 100 100 100 100 100
11 84 98 90 98 76 96 100 99 87 85 85 86 91 100 100 100 100 93 100 100 100 100 100 100 100 100 100 100 92 100 100 100 100 100 100 100 100
79 77 59 54 67 72 62 53 78 75 76 82 91 100 100 100 100 100 100 100 100 100 100 100 100 100 100 100 100 100 100 100 100 100 100 100 100 100

GFSNE_prec_cloud_117.txt.gz
Cloud_Cover
100 100 100 100 100 100 100 100 100 100 100 100 100 100 100 95 100 100 89 97 69 100 100 100 100 100 98 99 94 100 100 100 100 100 100 100 100 100
48 97 49 100 88 100 100 100 100 100 100 100 100 100 100 100 100 100 86 80 100 100 100 100 100 100 100 100 99 100 100 100 100 100 100 100 100 100
88 18 100 98 92 100 100 100 100 100 100 100 100 100 100 100 100 100 100 100 100 100 100 100 100 100 100 100 100 100 100 100 100 100 100 100 100 100
60 41 100 98 100 100 100 100 100 100 100 100 100 100 100 100 100 100 100 100 100 100 100 100 100 100 100 100 100 100 100 100 100 100 100 100 100 100
87 77 88 100 93 100 100 100 100 100 100 100 100 100 100 99 100 100 100 100 100 100 100 100 100 100 100 100 100 100 100 100 100 100 100 100 100 100
81 100 100 100 100 100 100 100 100 100 100 100 100 100 100 91 99 88 100 100 100 100 100 100 100 100 100 100 100 100 100 100 100 100 100 100 100 100
100 100 100 100 100 100 100 99 100 100 100 97 100 100 100 100 100 100 100 100 100 100 100 100 100 100 100 100 100 100 100 100 100 100 100 100 100 100
100 100 100 100 100 100 100 100 100 100 100 100 100 100 100 100 100 100 100 100 100 100 100 100 100 100 100 100 100 100 100 100 100 100 100 100 100 100
100 100 100 100 100 100 100 98 99 100 100 100 100 100 100 100 100 100 99 100 100 100 100 100 100 100 100 100 100 100 100 100 100 100 100 100 100 100
90 99 100 100 100 100 100 100 100 100 100 100 100 100 93 100 100 100 100 100 100 100 100 100 100 100 100 100 100 100 100 100 100 100 100 100 100 100
100 92 81 35 100 100 100 100 100 100 100 100 100 100 100 100 91 58 100 100 100 100 100 100 100 100 100 100 100 100 100 100 100 100 100 100 100 100
95 32 7 5 38 70 100 100 100 89 97 60 82 100 100 100 100 100 100 100 100 100 100 100 100 100 100 100 100 100 100 100 100 100 100 100 100 100
100 100 100 96 77 76 57 82 88 77 87 60 84 84 35 30 85 100 44 89 100 100 100 100 100 100 100 100 100 100 100 100 100 100 100 100 100 100
81 76 90 94 96 84 93 100 100 100 100 98 47 6 18 20 8 24 19 6 50 100 98 94 100 91 100 100 100 100 100 100 100 100 100 100 100 100
98 71 90 98 77 64 17 5 82 31 5 8 5 5 10 38 58 12 5 5 5 74 100 100 100 100 100 100 100 100 100 100 100 100 100 100 100 100
11 20 70 89 37 5 5 5 5 7 97 55 5 5 5 17 5 10 6 5 61 13 5 31 89 100 100 100 95 100 100 100 100 100 100 100 100 100
100 74 46 7 32 11 6 5 5 6 80 53 5 5 8 5 74 55 5 50 96 87 33 23 81 97 100 100 100 100 100 100 100 100 100 100 100 100
97 79 33 75 99 97 97 88 99 96 61 50 5 47 5 30 78 26 61 26 63 92 91 66 100 100 100 100 100 100 100 100 100 100 100 100 100 100
5 5 44 62 55 13 87 98 67 5 5 5 75 12 5 83 86 11 66 90 100 100 98 81 100 100 100 100 61 91 100 100 100 100 100 100 100 100
6 36 33 45 14 16 70 67 22 5 5 5 15 18 72 81 88 87 86 100 100 99 100 88 100 100 100 100 100 100 47 100 100 100 100 100 100 100
23 60 5 20 83 85 60 34 41 46 70 100 92 60 7 42 91 99 93 87 99 87 96 89 88 100 100 100 100 100 73 100 100 100 100 100 100 100
68 73 24 48 26 33 35 77 99 95 65 39 5 48 69 96 100 100 99 100 98 99 86 80 98 100 100 100 100 99 100 100 100 100 100 100 100 100
92 84 82 89 89 94 100 100 100 100 100 100 100 98 94 100 93 99 96 100 100 100 99 98 100 100 100 100 100 100 100 100 100 100 100 100 100 100

GFSNE_prec_cloud_120.txt.gz
Cloud_Cover
100 100 100 100 100 100 100 100 100 100 100 100 100 100 100 100 100 100 100 100 100 89 54 48 100 100 100 100 100 100 100 100 100 100 100 100 100 100
100 100 100 100 100 100 100 100 100 100 100 98 100 100 100 91 88 100 100 100 100 100 100 93 100 99 100 100 100 100 100 100 100 100 100 100 100 100
100 100 100 100 100 99 97 100 100 97 100 100 100 100 100 100 100 100 100 100 100 100 100 100 99 100 100 100 100 100 100 100 100 100 100 100 100 100
100 100 98 100 82 42 34 61 100 33 98 100 100 97 100 100 100 100 100 100 73 100 100 100 100 99 100 100 100 100 100 100 100 100 100 100 100 100
99 46 8 5 5 24 89 74 96 92 69 11 57 99 98 100 100 100 100 100 100 100 95 100 100 100 100 100 100 100 100 100 100 100 100 100 100 100
98 98 89 96 85 99 60 96 79 77 99 52 98 99 98 100 100 100 100 100 100 100 100 100 100 100 100 100 100 100 100 100 100 100 100 100 100 100
94 100 22 11 91 94 100 96 91 92 98 100 100 100 100 100 100 100 100 100 100 100 100 100 100 100 100 100 100 100 100 100 100 100 100 100 100 100
5 12 97 58 100 100 100 100 96 85 100 100 100 100 100 100 100 100 100 100 100 100 100 100 100 100 100 100 100 100 100 100 100 100 100 100 100 100
21 11 6 58 92 99 100 100 100 100 99 96 100 100 100 100 100 100 100 100 100 100 45 100 100 100 100 100 100 100 100 100 100 100 100 100 100 100
100 100 96 36 23 70 62 94 100 100 100 100 100 100 69 88 100 100 100 100 100 100 100 100 100 100 100 100 100 100 100 100 100 100 100 100 100 100
31 100 100 100 99 60 27 98 42 71 92 100 100 100 100 100 98 67 100 100 97 100 100 97 100 100 100 100 100 100 100 100 100 100 100 100 100 100
5 5 7 26 93 99 100 94 36 19 11 85 100 94 98 100 100 100 80 100 100 100 100 82 100 100 100 100 100 100 98 100 100 100 100 100 100 100
5 5 5 5 74 75 90 100 99 87 100 98 23 25 89 96 100 100 100 100 100 100 100 100 100 100 100 100 100 100 100 100 100 100 100 100 100 100
90 23 7 54 99 100 100 93 99 96 82 100 98 99 56 13 13 98 76 86 100 84 100 100 100 100 100 100 100 97 94 100 100 100 100 100 100 100
75 55 97 89 65 99 66 44 98 48 8 5 9 46 49 75 64 15 8 73 92 100 98 89 71 100 100 100 100 100 100 100 100 100 100 100 100 100
5 27 69 77 47 5 5 5 5 5 40 85 100 100 75 19 5 5 6 5 12 5 45 79 98 98 100 100 100 100 100 100 75 86 100 100 100 100
98 69 5 6 5 5 5 5 17 100 99 98 99 76 22 16 25 5 13 30 93 79 11 5 10 48 98 100 100 99 100 100 100 100 100 100 100 100
94 7 5 5 14 27 12 9 5 5 24 40 17 5 11 8 23 68 90 94 90 94 98 80 100 72 32 89 81 100 92 100 100 100 100 100 100 100
5 5 5 13 52 55 44 50 66 62 65 63 18 5 23 68 98 84 86 93 100 100 100 100 100 100 100 98 5 14 79 88 100 100 100 100 100 100
5 5 5 49 60 73 88 99 100 98 90 56 63 72 99 99 80 98 98 100 100 85 57 85 92 60 100 99 78 7 97 72 100 100 100 100 100 100
17 76 6 6 5 59 70 69 63 84 93 99 92 84 75 93 100 100 100 100 100 91 95 88 26 99 100 100 100 100 97 100 78 100 100 100 100 100
55 75 61 76 93 94 94 100 100 100 100 100 95 75 52 73 100 100 100 100 100 100 100 100 79 84 99 100 100 96 100 100 71 88 100 100 100 100
80 97 100 99 100 100 100 100 100 100 100 100 100 100 100 100 97 100 100 100 100 100 99 86 96 93 99 100 100 97 80 95 100 100 100 100 100 100

GFSNE_prec_cloud_123.txt.gz
Cloud_Cover
100 100 100 100 100 100 100 99 98 100 100 100 100 100 100 100 100 100 100 100 100 100 100 100 100 100 95 100 100 100 100 100 100 100 100 100 100 100
100 100 100 100 100 100 100 100 100 100 100 80 65 65 96 85 100 81 84 30 100 98 100 100 100 100 100 93 78 95 100 100 100 100 100 100 100 100
100 100 100 100 100 100 100 100 100 95 100 100 97 72 36 100 100 88 92 78 75 79 100 100 100 100 100 100 100 100 100 100 100 100 100 100 100 100
100 100 100 100 100 100 100 100 100 100 100 100 100 94 96 100 95 93 52 100 100 100 100 100 100 100 98 100 100 100 100 100 100 100 100 100 100 100
24 73 100 100 100 100 100 100 100 100 100 100 72 79 90 30 36 49 39 90 88 100 84 100 100 100 100 100 100 100 100 100 98 100 100 100 100 100
100 93 67 27 88 97 88 84 67 99 44 42 63 58 35 53 86 36 46 22 34 99 91 100 100 100 100 100 100 100 100 100 100 100 100 100 100 100
88 84 100 100 99 99 98 94 98 84 60 78 87 8 16 62 84 91 87 93 71 84 86 100 100 100 100 100 100 100 100 100 100 100 100 100 100 100
0 30 99 100 36 99 100 100 100 100 97 100 100 45 25 5 99 98 44 100 100 100 100 100 99 100 100 100 100 100 100 100 100 100 100 100 100 100
5 4 0 2 52 99 100 37 12 21 84 25 48 53 35 25 70 73 100 100 100 100 54 100 100 100 100 100 100 100 100 100 100 100 100 100 100 100
2 1 5 5 5 5 60 99 100 100 49 60 96 43 26 67 62 19 40 61 100 100 100 100 100 100 100 100 100 100 100 100 100 100 100 100 100 100
4 5 5 5 5 27 12 76 100 100 97 22 5 7 54 63 62 13 96 71 89 94 100 100 100 100 100 100 100 100 100 100 100 100 100 100 100 100
5 5 5 5 54 81 81 83 38 99 100 100 100 95 34 6 5 24 13 93 95 98 100 24 100 100 100 100 100 100 100 100 100 100 100 100 100 100
5 5 5 5 78 100 100 99 76 95 92 96 100 100 100 77 45 5 5 32 76 100 100 93 82 100 99 100 100 100 100 100 100 100 100 100 100 100
20 32 5 60 94 86 96 83 96 90 40 5 5 32 99 98 46 26 5 6 18 100 97 67 75 85 96 100 100 60 100 100 100 100 100 100 100 100
76 11 92 96 100 46 6 74 90 10 5 5 7 7 5 50 71 14 5 5 5 5 90 100 79 82 100 100 100 100 64 95 100 100 100 100 100 100
8 20 95 66 38 5 5 5 5 5 78 100 100 74 17 17 43 13 25 5 45 21 5 23 100 92 77 100 100 100 100 96 48 100 100 100 100 100
100 33 17 5 5 5 5 5 5 5 27 16 50 40 5 5 5 14 21 22 97 100 54 5 5 38 100 100 100 100 100 100 93 86 100 100 100 100
98 7 5 5 5 5 13 35 36 23 5 5 5 8 40 14 26 45 60 100 100 100 96 90 69 90 98 79 86 94 100 100 100 100 95 100 100 100
6 5 5 5 5 5 5 5 68 12 15 10 77 51 67 65 97 100 100 100 98 100 100 100 82 94 100 96 13 14 12 92 100 100 100 99 99 100
5 5 5 5 5 35 31 64 91 100 91 85 89 81 84 99 97 98 92 100 100 98 95 38 65 96 99 84 90 8 7 100 85 100 100 100 100 100
5 5 5 5 12 59 84 95 98 100 100 99 99 99 91 99 96 100 99 98 100 99 100 100 90 80 100 100 99 10 5 18 99 99 100 100 100 100
5 5 25 79 99 94 91 99 99 100 99 100 100 100 96 98 93 97 98 100 100 100 99 96 100 100 100 100 100 83 44 15 92 98 100 100 100 100
5 81 100 100 97 100 100 100 99 94 98 100 100 100 99 99 91 99 100 100 100 100 86 99 100 92 100 100 100 100 98 97 70 93 43 63 100 100

GFSNE_prec_cloud_126.txt.gz
Cloud_Cover
100 100 98 32 5 28 74 63 100 100 100 100 100 100 100 100 100 100 100 100 100 98 100 100 99 99 100 100 100 100 100 100 100 100 98 98 100 100
100 100 94 79 76 82 100 98 100 100 100 100 100 100 100 100 100 84 31 98 100 99 62 100 100 100 94 100 100 100 100 100 100 100 100 100 100 91
100 100 100 100 100 100 100 100 100 100 100 100 100 100 100 100 99 88 82 4 27 100 95 100 100 100 100 100 100 100 100 100 100 100 100 100 100 100
99 100 100 100 100 100 100 100 100 100 100 100 100 100 100 96 84 12 32 52 67 10 14 29 80 70 100 100 100 100 100 100 100 100 100 100 100 100
31 73 97 97 100 100 100 100 100 100 100 100 100 100 100 100 100 100 100 97 37 58 30 6 5 7 100 98 100 100 100 100 100 100 100 100 100 100
0 0 2 4 6 36 91 100 100 100 100 100 100 100 100 100 37 93 93 84 51 27 12 60 45 52 83 82 100 100 100 100 100 100 100 100 100 100
0 0 0 0 0 4 12 26 5 5 12 44 100 100 100 100 100 85 100 89 39 91 6 36 35 84 42 56 64 100 100 100 100 100 100 100 100 100
5 0 0 0 0 1 5 4 51 100 77 8 66 98 100 100 100 96 100 26 75 22 99 59 7 58 5 6 99 100 100 99 100 33 100 100 100 100
2 0 1 2 5 5 5 5 5 5 23 85 98 23 66 58 100 100 95 98 99 82 34 69 18 5 8 85 20 5 100 100 100 100 100 100 100 100
1 1 5 5 5 5 14 5 5 5 5 5 50 100 100 77 92 100 100 80 98 82 5 57 76 22 96 100 89 100 100 100 96 100 100 100 100 100
5 5 5 5 4 26 5 5 5 5 5 5 31 34 39 98 100 93 7 53 60 100 76 19 31 5 41 100 49 27 100 100 97 100 100 100 100 100
5 5 5 5 58 85 100 82 34 5 5 11 44 7 44 96 100 90 93 65 85 47 100 15 71 16 10 8 24 100 100 100 100 100 100 100 100 100
94 35 5 5 81 100 100 100 81 98 99 86 62 5 5 5 5 5 60 100 98 37 29 43 86 80 62 100 18 12 72 100 97 100 100 100 100 100
100 76 7 78 100 100 100 84 92 96 46 5 5 5 5 5 5 5 76 98 33 98 100 7 100 66 94 100 100 44 5 100 100 100 100 100 100 100
100 82 100 100 100 67 5 25 41 6 5 44 47 14 14 6 7 13 90 100 78 5 15 85 43 15 87 100 100 100 80 39 48 96 100 100 100 100
5 7 55 70 5 0 2 3 5 5 30 88 65 37 52 56 12 6 11 6 64 6 5 5 6 26 74 77 100 91 98 98 13 97 100 100 100 100
99 66 5 5 5 5 5 5 5 5 5 5 7 21 33 62 37 20 22 65 87 96 89 90 39 10 63 65 99 98 98 92 73 57 98 100 100 99
94 7 5 5 5 5 5 5 5 11 5 5 12 44 85 83 93 87 86 97 100 91 97 100 99 99 85 36 46 54 83 74 34 77 100 100 100 100
8 5 5 5 5 5 13 57 83 60 65 81 92 80 88 100 99 90 97 100 99 99 62 98 98 100 100 100 5 9 12 6 81 65 87 100 100 100
5 10 5 5 5 59 75 94 100 100 100 100 100 98 91 99 100 100 100 100 100 98 83 10 78 83 100 79 96 88 70 10 5 65 48 82 64 100
5 8 5 22 42 78 98 100 100 98 99 98 98 100 100 100 94 100 100 99 100 100 98 76 12 82 100 100 100 71 5 76 45 12 65 99 99 77
25 5 5 63 99 97 100 100 100 100 100 100 99 100 100 100 100 98 94 100 94 100 94 40 27 91 98 100 93 70 6 5 51 84 7 98 100 100
81 28 82 98 89 98 100 100 100 100 100 100 98 100 100 100 94 99 100 100 100 100 100 100 97 94 100 100 100 89 86 60 5 74 100 36 97 100

GFSNE_prec_cloud_129.txt.gz
Cloud_Cover
94 100 100 100 98 43 28 44 97 99 100 100 100 100 100 100 100 100 100 100 100 100 100 100 100 100 100 100 100 100 100 100 100 100 100 100 100 100
0 6 95 98 51 26 51 72 66 96 100 79 88 100 100 100 100 100 100 100 100 100 100 100 98 100 100 100 100 100 100 100 100 100 100 100 100 100
1 4 0 49 100 93 68 74 99 82 84 100 60 98 100 100 100 100 100 100 100 98 83 26 88 100 93 100 100 100 100 100 100 100 100 100 100 100
5 5 5 3 13 100 100 58 100 100 100 99 96 91 100 100 100 100 100 100 100 87 92 5 5 86 100 100 100 100 100 100 100 100 100 100 100 97
5 5 2 3 5 5 75 100 64 100 100 100 94 100 100 100 100 100 100 100 100 100 100 88 16 48 30 5 32 95 62 96 100 100 100 100 100 100
1 0 0 0 2 5 5 5 76 63 94 100 100 65 100 98 100 100 100 100 100 100 100 70 54 36 5 5 2 5 5 5 77 100 100 100 99 100
5 0 0 0 2 5 5 5 19 47 8 17 100 94 50 100 100 100 100 100 100 100 100 99 100 92 6 5 3 4 15 72 100 100 100 100 100 100
5 2 0 0 4 3 5 17 35 98 100 100 97 48 99 100 100 100 100 100 100 22 92 58 98 74 99 61 46 7 7 100 100 100 100 100 100 100
5 5 5 5 5 5 5 5 5 5 8 47 93 76 46 8 40 68 100 100 100 100 98 100 100 97 100 99 63 51 100 55 97 49 13 14 95 89
5 5 5 5 5 5 9 8 5 5 5 5 5 18 28 61 77 100 99 93 100 100 99 100 88 72 30 13 42 93 6 49 56 5 5 5 5 50
5 5 5 5 5 77 76 92 86 8 5 5 5 5 28 67 62 98 100 98 98 100 100 100 100 100 99 99 95 100 91 44 11 6 5 18 5 35
5 5 5 7 77 95 100 93 89 47 8 30 25 38 5 5 5 8 12 60 96 93 87 64 93 56 100 100 88 41 72 42 5 5 96 5 50 100
98 100 87 5 88 97 98 79 47 99 88 56 7 5 5 5 5 5 5 25 85 99 5 58 68 93 98 100 100 14 5 5 5 5 60 5 96 100
100 100 100 93 100 100 94 10 7 71 38 37 5 5 31 5 5 16 10 99 100 100 61 87 84 61 73 100 100 92 4 5 5 5 77 38 98 80
100 53 99 80 90 42 5 5 5 5 5 5 5 48 86 35 7 5 5 5 44 42 40 60 74 71 95 100 86 100 100 5 5 32 58 5 87 93
38 63 71 99 62 5 1 3 5 7 78 75 90 59 22 80 79 85 92 86 88 81 62 36 22 92 98 95 99 60 96 97 5 17 21 12 62 63
98 93 62 5 5 5 5 5 5 6 63 71 83 83 72 72 77 90 98 94 97 97 89 97 99 97 90 95 100 96 19 66 66 27 87 92 100 100
97 98 62 5 5 5 5 6 59 73 71 90 88 95 91 93 94 85 97 97 99 97 97 95 96 96 88 81 74 79 70 95 73 84 83 100 66 35
100 53 12 5 5 42 82 92 96 93 97 96 97 94 96 100 100 100 100 100 100 100 99 100 100 99 100 100 19 5 5 25 98 98 55 14 67 5
100 27 50 5 45 86 92 100 96 92 92 100 100 100 100 100 100 100 100 100 100 100 100 98 100 90 99 63 99 79 5 5 21 64 49 64 47 13
72 8 22 5 68 96 97 96 100 95 100 100 99 100 100 100 100 100 100 99 100 100 99 99 68 77 100 99 100 71 5 14 42 43 55 92 87 79
43 40 7 70 94 86 100 100 100 92 98 93 96 100 100 100 100 100 100 100 100 100 98 66 43 89 94 100 100 99 78 5 5 6 94 88 86 99
61 60 68 97 92 100 100 100 100 97 99 100 100 100 100 100 99 100 100 100 100 100 100 100 100 100 100 100 100 100 100 100 100 99 75 75 72 11

GFSNE_prec_cloud_132.txt.gz
Cloud_Cover
4 0 0 49 94 93 98 98 100 100 100 100 100 80 98 100 100 100 100 100 100 100 100 100 100 100 100 100 100 100 100 100 100 100 100 100 100 100
0 0 0 0 0 5 5 9 36 45 85 99 100 98 99 100 100 100 100 100 100 100 100 100 100 100 100 100 100 100 100 100 100 100 100 100 100 100
4 0 0 0 0 5 5 5 5 56 69 5 11 88 100 100 100 100 100 100 100 100 100 100 100 100 100 100 100 100 100 84 100 100 100 100 100 100
5 9 0 0 5 5 5 5 5 5 12 96 100 42 5 88 100 100 100 100 100 100 100 100 100 100 100 94 37 100 100 92 100 100 100 100 100 100
5 5 5 5 5 5 5 5 4 5 5 5 61 18 66 18 21 100 100 100 100 100 100 100 100 100 100 100 100 99 94 100 20 100 100 100 100 100
68 5 5 5 5 5 5 5 5 15 17 14 8 25 24 88 98 28 63 100 96 100 100 100 100 100 100 100 100 76 63 55 100 100 99 100 100 100
100 98 70 99 5 5 5 3 12 42 88 91 37 18 5 5 37 100 100 100 23 100 100 100 100 100 100 100 99 95 54 12 100 100 100 86 98 99
62 100 51 5 5 5 5 14 28 23 28 82 100 100 70 74 75 80 98 83 52 87 100 100 100 100 100 100 100 100 88 100 84 5 5 0 5 5
99 100 100 77 27 5 5 6 20 20 11 18 73 86 85 82 99 100 100 98 100 97 98 100 100 100 100 95 92 100 100 49 20 19 32 5 5 5
100 67 81 100 77 19 21 76 95 92 92 77 87 91 100 100 79 86 84 95 41 64 97 92 32 69 88 100 100 100 100 96 87 65 5 13 16 7
100 100 98 100 100 69 91 99 100 100 100 84 17 5 5 78 99 91 91 89 82 100 74 95 70 41 88 98 100 100 100 100 82 100 72 5 78 94
100 100 100 100 100 100 100 92 100 100 100 100 100 100 95 77 76 76 93 100 99 100 84 68 96 91 77 61 21 77 100 100 100 100 94 100 62 40
100 100 100 100 100 100 100 100 100 99 90 88 92 88 73 37 65 84 95 94 92 95 64 100 99 100 100 96 57 32 7 70 99 100 95 100 100 100
100 100 100 100 100 100 100 96 17 11 59 26 14 5 55 90 97 100 100 100 90 66 9 84 95 96 100 92 91 5 5 5 24 64 55 93 62 97
100 100 100 100 100 100 97 44 5 5 5 5 30 51 73 75 88 83 94 99 93 80 63 93 90 92 100 100 100 40 56 5 5 42 66 90 100 100
100 100 100 97 100 75 15 5 5 5 7 79 95 84 85 92 99 98 100 100 100 87 94 83 86 100 100 100 100 87 49 91 5 8 42 8 64 93
100 100 100 100 92 92 41 5 7 77 92 99 96 100 97 99 98 100 100 100 100 100 90 95 100 100 100 100 99 82 37 50 13 73 98 76 95 74
100 100 100 100 90 97 5 7 82 95 98 96 100 100 100 100 100 100 100 100 100 100 95 89 100 100 100 84 98 91 79 60 36 82 98 88 74 80
100 100 100 99 100 74 89 90 99 96 100 100 100 100 100 100 100 100 100 100 100 100 100 100 100 100 100 100 12 87 84 70 81 100 82 57 6 7
100 100 100 100 97 99 93 97 100 100 100 100 100 100 100 100 100 100 100 100 100 100 100 99 100 100 100 98 100 63 38 34 60 66 72 56 5 41
100 100 100 100 92 95 96 100 100 100 100 100 100 100 100 100 100 99 100 100 100 100 100 98 93 100 100 92 100 79 25 5 97 97 89 96 81 81
100 100 100 90 98 99 100 100 100 100 100 100 100 100 100 100 100 100 100 100 100 100 100 91 92 100 100 100 100 94 100 95 41 75 100 95 86 79
100 100 100 95 99 100 100 100 100 100 100 100 100 100 100 100 100 100 100 100 100 100 100 100 100 100 100 100 100 100 100 100 90 84 56 56 94 36